GFSFLT1_sfc_thetae_000.txt.gz
Theta_e
292 291 289 287 286 285 285 285 285 285 287 287 287 287 286 284 284 283 284 282 281 281 281 280 280 280 280 279 278 278 278 278
290 291 291 290 288 286 285 285 284 284 285 285 284 285 285 284 284 284 283 282 281 281 281 280 280 280 280 279 278 278 277 277
288 289 289 290 292 291 288 286 286 285 285 284 285 284 283 284 284 283 282 281 281 281 280 280 280 280 279 278 278 277 277 277
287 288 288 289 290 289 290 289 288 288 285 284 284 283 284 285 284 283 283 282 281 281 280 280 280 279 280 279 278 278 277 277
286 287 288 289 289 289 288 288 288 287 285 285 284 284 286 286 285 283 283 282 281 281 281 280 280 280 279 279 278 277 277 277
286 287 288 288 288 288 288 287 287 286 286 286 286 284 285 285 285 282 282 282 282 281 280 280 280 279 279 279 278 276 276 275
285 288 286 286 286 286 287 287 286 285 285 286 286 285 283 284 284 281 281 281 281 280 280 279 279 283 284 280 277 277 275 274
284 284 284 285 287 285 286 286 285 284 285 284 283 283 284 282 281 281 280 281 280 280 279 279 279 284 285 284 278 276 275 274
282 281 282 283 284 284 286 284 284 283 283 283 282 281 281 279 280 279 279 279 279 279 279 279 279 284 286 284 277 276 275 274
280 280 281 281 282 283 280 282 283 283 283 282 281 279 279 277 277 278 279 279 280 280 279 278 278 283 286 283 276 276 274 274
277 278 278 279 281 278 278 279 279 281 282 281 279 277 276 275 274 276 278 278 278 278 278 278 277 283 285 282 275 273 273 273
276 275 276 279 277 275 276 276 277 277 277 281 280 277 276 277 273 274 275 274 273 274 275 276 276 279 284 284 275 274 273 272
274 274 275 275 274 273 273 274 274 275 275 277 279 278 276 275 274 274 274 273 271 271 270 272 274 278 284 285 278 277 273 272
272 272 273 273 272 270 271 271 271 271 272 273 275 279 276 275 274 273 273 272 269 270 270 270 272 274 282 285 281 279 274 274
270 269 269 271 270 269 269 268 267 267 267 269 270 273 276 274 275 273 272 272 272 271 271 271 270 272 276 281 281 279 274 275
269 268 267 268 267 267 266 265 264 264 265 265 268 269 274 274 274 273 275 275 273 273 273 271 270 271 277 281 279 276 273 273
266 265 265 264 263 263 263 262 261 261 262 263 265 267 270 273 273 277 278 278 279 279 276 274 276 277 279 282 282 279 278 272
262 262 261 260 260 261 260 260 259 259 260 261 263 265 268 272 271 270 273 279 280 280 280 279 276 278 279 281 283 280 278 270
260 259 258 258 258 259 259 259 259 259 260 260 262 264 266 269 271 270 270 269 273 279 279 281 279 279 279 281 282 278 275 268
258 258 258 258 258 259 259 258 258 258 259 261 262 264 266 268 271 270 270 270 271 273 277 279 280 278 280 281 277 275 267 266

GFSFLT1_sfc_thetae_003.txt.gz
Theta_e
288 289 290 291 291 291 290 289 288 288 287 287 288 288 288 286 286 286 287 286 285 285 285 284 284 284 284 284 283 282 282 283
287 289 289 290 290 289 290 289 289 289 289 287 287 287 287 285 285 286 286 285 284 284 284 283 283 283 283 283 282 282 282 281
286 288 289 289 289 288 289 288 288 289 289 289 288 286 285 286 286 286 285 284 284 284 283 283 283 282 282 282 281 281 280 280
286 286 288 288 288 288 287 288 288 288 287 288 288 288 287 286 287 285 285 284 284 283 283 282 282 282 282 282 282 281 281 281
285 285 287 286 286 287 287 288 287 287 286 286 286 287 287 287 287 287 285 285 284 284 283 283 282 282 282 282 281 281 281 281
285 283 284 284 284 286 286 287 287 286 285 285 286 286 286 286 286 287 285 285 284 284 283 283 282 282 281 281 281 281 280 280
285 282 283 282 283 284 284 285 285 285 284 285 285 284 284 285 284 284 285 284 284 283 283 282 282 285 286 283 281 281 279 278
283 281 281 281 281 281 282 284 282 283 284 284 284 283 282 283 283 282 283 284 283 283 282 282 282 287 287 286 281 280 279 279
282 280 279 280 280 280 282 280 280 281 281 282 280 280 281 281 281 281 282 282 282 282 282 282 282 286 287 286 282 280 280 278
280 279 278 278 278 278 279 278 278 278 278 278 278 277 279 279 280 280 279 280 281 282 282 281 282 285 287 286 283 279 279 278
277 276 276 276 277 277 276 274 275 276 276 276 275 276 279 279 279 279 278 279 280 279 280 280 281 284 285 287 283 279 278 277
275 274 274 275 274 274 273 272 274 274 273 272 273 273 275 276 278 278 277 277 277 277 278 277 279 280 284 286 283 278 277 275
274 274 274 274 273 272 271 273 271 270 269 269 269 270 272 273 275 277 276 276 275 275 275 276 276 278 282 285 287 281 277 275
272 271 272 272 271 269 270 270 268 266 265 265 266 267 268 269 271 275 276 274 275 274 274 274 275 276 281 282 286 282 277 277
269 268 268 269 269 267 267 266 264 262 262 263 263 264 265 267 270 272 275 275 274 274 273 274 273 274 275 279 282 281 279 278
267 266 265 265 264 264 263 262 260 260 260 260 261 261 263 265 267 270 275 276 275 275 275 274 272 273 276 278 280 279 277 275
263 262 261 261 260 260 260 259 258 258 258 258 259 260 261 262 264 270 274 278 280 281 279 276 279 279 279 280 282 282 279 273
260 259 259 258 258 259 259 259 258 257 258 258 259 259 259 260 262 263 269 277 280 281 282 282 279 279 280 281 282 283 279 273
258 258 258 258 258 259 259 258 258 258 258 258 258 258 259 260 262 264 265 268 272 276 279 282 282 281 280 281 282 278 278 274
259 257 257 255 255 257 257 257 257 257 258 258 258 258 259 260 261 263 264 266 271 271 275 277 282 283 280 281 279 277 275 272

GFSFLT1_sfc_thetae_006.txt.gz
Theta_e
290 291 292 292 292 292 292 290 291 292 292 293 293 293 292 292 292 292 293 293 292 293 292 293 292 291 291 291 291 289 290 290
289 291 291 291 291 290 290 290 289 290 290 291 292 292 292 291 292 291 291 291 291 291 291 291 290 290 290 290 290 288 288 288
289 288 290 289 289 289 289 289 289 289 289 289 289 289 289 290 291 291 291 291 290 290 289 289 288 289 288 288 288 287 286 287
288 287 287 287 287 287 288 287 288 288 288 288 287 287 287 287 289 290 290 289 290 289 288 288 287 287 287 288 287 286 287 286
286 286 286 286 286 286 286 286 287 286 287 286 287 287 286 285 286 287 288 289 288 288 287 288 287 287 287 286 287 286 286 287
283 286 285 285 284 285 285 285 286 284 285 285 287 287 286 285 285 286 286 286 287 287 286 286 286 285 286 285 285 285 285 285
283 284 285 284 283 283 283 284 285 283 283 284 285 285 283 283 283 284 284 285 286 285 286 286 285 287 288 286 284 284 283 284
283 283 285 284 282 282 282 283 284 282 282 282 283 282 281 281 282 283 282 284 283 284 285 285 286 288 288 288 285 284 284 284
283 283 285 284 282 282 282 281 282 281 280 281 281 279 279 278 279 282 282 282 282 283 284 284 285 287 288 287 286 285 285 284
284 283 283 281 281 280 280 279 280 279 279 279 279 277 276 274 276 279 280 281 282 282 283 284 285 286 287 287 286 284 284 284
282 281 280 280 279 278 277 277 276 277 277 278 277 274 273 274 274 276 278 279 281 281 282 283 283 285 285 285 285 284 284 283
281 279 279 279 278 275 275 274 276 276 275 274 274 272 272 272 273 273 274 275 276 278 280 281 282 283 284 285 284 284 284 283
278 277 277 276 275 273 272 274 273 272 270 270 269 269 269 268 269 269 270 271 273 276 278 280 281 281 282 284 285 285 284 283
274 273 273 273 272 270 270 270 268 267 265 265 265 266 266 265 266 267 268 269 271 274 277 278 280 281 282 283 284 284 284 284
271 269 268 269 268 267 267 266 264 262 262 262 262 262 263 264 265 265 266 267 269 272 275 277 279 280 280 279 280 282 283 284
267 266 265 266 265 264 264 263 261 260 261 261 261 261 261 262 263 264 265 267 267 269 273 275 276 279 280 279 278 281 282 280
264 263 263 262 262 262 262 261 260 260 260 260 260 261 261 261 261 265 267 269 270 272 272 273 277 281 281 281 281 281 283 277
262 261 261 261 260 261 261 260 258 258 259 259 260 260 260 260 259 259 262 266 268 271 273 275 278 280 282 282 282 281 282 276
260 259 260 260 259 260 259 258 258 258 258 259 259 259 259 259 259 260 259 259 262 268 271 274 279 282 283 283 282 278 280 277
259 259 260 259 258 260 259 259 258 259 259 260 260 260 260 260 260 260 260 260 261 264 268 272 277 278 279 283 280 278 278 277

GFSFLT1_sfc_thetae_009.txt.gz
Theta_e
291 292 292 292 292 292 291 290 290 290 290 291 291 291 291 293 293 293 293 293 292 293 294 294 294 294 293 293 292 292 292 292
290 290 291 290 290 290 289 289 288 289 289 289 289 289 289 288 289 290 291 292 291 291 291 291 291 292 292 291 291 290 290 290
289 288 288 288 288 288 288 288 288 287 288 288 288 288 287 286 286 288 288 290 290 290 289 289 290 290 290 289 288 289 288 288
287 287 286 286 286 286 286 286 287 287 287 287 287 287 286 285 285 286 286 287 288 289 288 288 288 288 289 289 288 288 288 288
285 286 287 286 286 285 285 286 286 286 285 285 286 286 286 285 285 284 285 285 286 286 287 287 287 287 287 287 287 287 287 287
283 284 286 286 285 285 285 285 285 284 285 284 285 285 285 284 283 283 284 285 285 285 285 286 286 286 286 286 286 285 286 286
283 284 284 285 286 284 284 285 285 283 283 283 283 283 283 282 281 281 281 283 284 283 283 284 285 287 288 287 285 285 284 284
283 284 284 285 285 284 283 284 283 282 282 282 281 281 281 281 280 279 279 280 281 281 282 282 283 286 287 288 286 285 285 284
284 284 285 285 284 283 283 282 281 280 280 281 280 279 280 279 278 277 278 278 278 279 280 281 282 285 287 287 286 285 285 285
285 284 284 283 283 281 280 279 279 278 278 278 278 277 277 276 275 275 275 275 275 276 277 279 280 284 285 286 285 285 285 285
284 283 282 282 281 278 277 276 276 276 276 276 276 275 274 274 273 274 273 273 274 274 275 276 276 281 283 284 284 283 284 285
283 281 280 280 277 275 275 273 274 274 273 272 272 271 271 270 271 270 269 270 269 270 271 272 274 276 281 283 282 283 283 283
279 278 278 276 274 272 271 272 271 269 268 267 266 266 267 265 265 265 265 265 265 266 268 271 273 276 279 282 284 284 283 282
274 273 273 272 271 269 269 269 267 265 263 263 263 263 263 262 262 262 263 263 264 265 265 267 271 274 278 281 284 284 283 284
271 269 268 269 269 267 267 266 263 262 262 262 261 262 262 262 262 261 261 261 262 262 263 265 268 271 274 278 280 281 282 283
268 267 266 267 266 265 264 263 261 261 261 261 261 261 261 262 262 262 263 263 261 262 263 263 263 267 271 275 276 279 280 279
265 265 264 264 263 263 263 262 260 259 259 259 259 260 260 260 260 265 267 268 269 269 268 267 270 272 273 275 276 278 281 279
263 263 262 261 261 262 262 261 259 258 258 259 259 259 259 259 259 258 262 266 267 268 269 269 270 272 273 274 276 279 279 278
261 260 260 260 260 262 262 261 259 258 258 259 259 259 260 260 260 260 259 259 260 264 266 268 269 271 273 275 277 274 277 279
259 259 260 260 260 262 261 260 258 258 258 259 260 260 261 261 261 261 261 261 261 262 265 266 269 272 274 278 276 276 277 278

GFSFLT1_sfc_thetae_012.txt.gz
Theta_e
286 288 286 286 287 286 286 285 285 285 286 286 285 285 284 284 284 285 286 287 288 288 288 288 288 288 287 287 287 286 286 287
285 285 285 285 285 284 284 284 284 284 285 284 284 285 284 283 283 284 284 285 286 287 286 286 286 287 286 286 286 285 285 285
285 283 284 284 283 283 283 283 284 284 283 284 284 284 283 283 283 282 284 285 285 285 286 285 285 285 285 285 285 284 284 285
282 283 282 282 282 281 282 282 284 283 282 282 282 281 281 281 281 281 282 283 283 284 284 284 285 285 285 285 285 285 284 285
281 281 281 282 281 281 281 282 282 281 281 280 280 280 281 281 281 280 280 280 280 282 283 283 284 284 284 284 284 285 285 285
280 281 280 281 282 282 281 281 281 280 279 279 280 280 280 279 279 279 278 279 279 280 281 282 282 283 283 283 284 284 284 285
281 281 281 281 282 283 282 281 280 279 278 280 280 280 279 279 279 279 278 277 277 277 278 279 281 284 286 286 284 285 284 284
281 281 282 281 282 281 280 279 277 276 276 277 277 278 278 278 278 278 277 277 276 276 276 276 278 282 283 285 283 284 284 284
281 281 281 281 280 279 279 277 277 276 275 275 276 276 276 276 275 276 276 275 275 274 275 274 275 280 281 283 282 282 282 283
281 281 280 279 278 277 276 276 276 275 275 275 274 273 273 272 272 273 272 272 272 273 273 272 273 277 279 279 277 279 280 282
279 279 278 276 275 275 274 272 272 273 273 272 271 269 269 269 269 269 268 269 270 269 270 270 270 274 276 276 274 274 277 279
278 277 276 274 273 272 271 270 271 270 269 268 267 266 265 265 265 265 264 265 264 264 265 266 267 268 273 274 273 273 274 276
275 274 273 273 271 269 268 270 268 267 265 264 263 263 264 262 262 262 261 261 261 261 262 264 265 269 270 273 274 275 274 275
270 270 271 268 267 266 267 267 265 263 261 261 262 262 262 261 260 260 261 260 260 260 260 261 264 265 268 271 272 274 273 276
267 265 265 265 267 263 265 264 262 260 260 261 260 260 260 261 261 260 260 259 260 259 259 260 261 262 263 264 265 268 269 274
265 265 264 265 264 261 263 261 260 260 260 260 260 259 259 259 259 260 261 262 262 263 264 263 263 265 268 269 267 267 270 271
263 263 262 260 261 261 258 258 259 259 259 259 259 259 259 259 259 264 266 268 269 270 269 267 270 271 271 272 272 273 273 270
261 261 259 259 259 259 258 257 259 259 259 259 259 258 258 258 258 258 262 267 268 269 269 270 270 271 271 272 272 273 273 269
259 257 255 256 257 258 257 259 259 258 258 258 258 258 258 259 259 259 259 259 260 265 267 269 271 272 272 273 273 269 270 269
255 255 255 254 257 257 257 259 257 257 258 258 258 259 259 260 260 260 261 261 261 263 266 266 269 271 272 274 271 270 269 270

GFSFLT1_sfc_thetae_015.txt.gz
Theta_e
285 285 285 285 284 284 284 283 283 283 284 284 284 284 282 281 281 281 282 283 283 284 284 285 285 285 284 284 284 284 285 286
283 284 284 283 282 282 283 283 282 282 282 283 282 283 282 281 281 281 281 281 282 282 282 283 283 283 283 283 284 283 284 284
283 283 283 282 282 281 281 282 282 282 281 281 282 282 281 281 280 280 279 280 280 281 281 282 282 282 282 283 284 283 284 284
281 280 280 280 280 280 280 281 281 281 280 280 280 279 279 279 280 280 280 279 279 279 279 280 281 281 282 282 283 283 284 285
280 280 280 280 279 280 280 280 280 279 279 278 278 278 278 279 278 279 279 278 278 278 279 279 280 280 281 282 282 282 283 284
280 280 279 280 281 281 280 280 280 279 279 278 278 279 279 278 279 278 278 278 278 277 277 277 277 278 279 280 280 281 282 283
280 280 280 280 280 281 280 280 280 278 278 278 278 279 279 278 278 278 278 277 277 277 277 276 277 280 281 281 279 279 280 280
279 280 280 280 281 280 279 278 276 275 274 275 276 276 276 277 276 275 275 275 275 275 275 275 275 279 280 280 278 277 277 278
279 279 280 280 279 278 278 276 276 274 273 273 274 273 273 273 272 272 272 272 272 272 272 272 273 277 278 278 276 275 276 276
279 279 278 277 276 276 275 275 275 274 274 273 271 269 269 268 268 268 268 268 268 269 268 268 268 273 273 273 271 272 272 274
278 278 276 274 274 274 273 271 271 272 271 270 269 266 266 266 265 265 265 265 266 265 265 265 264 269 270 271 269 268 269 270
276 274 273 273 272 271 270 268 269 269 268 266 266 264 264 263 264 263 262 263 262 262 263 263 264 264 269 270 269 268 268 269
274 273 272 271 269 268 267 269 266 265 263 263 261 261 263 261 261 261 260 260 260 260 261 262 264 266 268 270 271 271 268 267
270 270 270 267 267 265 266 265 264 259 258 258 260 261 261 259 259 259 259 259 259 260 260 261 263 264 268 269 270 270 268 268
266 264 264 265 266 263 263 263 255 254 258 260 260 260 259 260 260 259 258 258 259 259 259 261 263 265 267 267 265 267 268 268
265 264 263 264 262 259 261 258 257 258 260 260 260 259 259 260 259 260 261 262 262 264 265 264 264 266 271 272 270 270 271 269
263 262 261 258 258 257 255 254 254 258 259 259 259 259 259 259 259 264 266 268 269 270 269 268 271 272 273 274 275 275 276 271
262 262 257 256 257 255 255 252 252 255 258 258 259 258 258 258 257 257 261 267 268 269 270 271 272 273 273 274 275 276 275 270
258 256 253 253 254 256 253 251 251 252 257 257 257 257 258 258 258 259 258 258 260 265 268 270 270 271 273 274 273 269 270 269
254 254 252 251 254 254 252 252 251 255 257 257 257 257 258 259 259 259 259 260 260 261 264 265 268 270 270 269 264 264 265 267

GFSFLT1_sfc_thetae_021.txt.gz
Theta_e
284 284 283 282 282 281 281 281 281 281 281 281 280 280 279 278 278 278 278 279 279 278 278 279 279 279 278 279 279 278 278 280
283 283 283 282 282 281 281 280 280 280 279 279 279 279 279 278 278 278 278 278 278 278 278 277 277 277 277 277 278 277 278 278
284 282 282 282 281 280 280 279 279 279 278 279 278 278 278 277 278 278 277 278 278 278 278 277 277 277 276 276 276 276 276 277
281 280 280 279 279 279 279 279 280 279 278 278 278 277 277 277 278 278 277 277 277 277 276 276 276 276 276 276 276 276 277 277
278 279 279 278 278 277 278 279 279 278 278 277 277 277 277 277 276 276 276 275 275 275 275 275 275 275 276 276 276 277 277 277
280 278 277 277 277 277 277 278 278 277 277 277 277 277 276 275 275 275 274 274 274 273 273 273 274 275 275 275 275 275 275 275
279 279 278 278 278 278 278 278 278 277 276 276 275 275 274 274 273 273 272 272 272 271 271 271 272 275 276 276 274 274 273 273
279 279 279 278 279 278 278 278 275 274 271 271 273 272 272 271 271 270 269 270 269 269 269 268 269 273 274 275 272 271 271 271
278 278 278 278 278 277 277 275 274 272 270 270 271 269 269 268 268 268 268 267 267 267 266 266 268 272 272 273 271 270 270 269
279 278 277 277 277 276 274 274 273 272 271 270 268 266 267 264 265 265 265 265 264 265 265 264 264 269 271 271 269 268 268 269
279 278 276 275 275 274 272 270 270 271 270 269 267 263 262 264 263 264 262 264 264 264 264 263 262 267 269 270 268 266 267 268
277 276 275 273 272 271 270 268 269 268 267 266 265 262 262 261 262 261 260 262 260 261 261 261 262 263 269 271 269 268 267 267
276 274 272 272 271 269 268 268 266 265 265 263 259 260 261 255 258 257 258 257 258 258 259 261 263 266 268 270 272 272 269 268
274 272 271 268 268 267 267 266 265 261 260 256 257 259 259 254 257 258 256 256 258 259 259 260 263 264 268 271 272 273 271 271
270 269 267 265 267 264 265 264 259 258 259 258 257 257 257 259 260 258 257 257 258 258 259 261 265 267 268 268 268 271 272 273
270 269 266 265 264 263 263 260 258 258 259 257 256 255 257 258 259 259 260 261 261 264 265 265 264 266 272 272 271 271 272 273
266 265 263 262 261 260 258 257 256 258 259 257 257 257 258 258 258 263 267 269 270 271 270 268 271 272 273 273 274 275 274 268
264 262 260 259 259 260 258 255 254 255 256 256 257 256 256 256 256 255 259 266 267 268 269 269 270 271 272 273 272 271 268 259
260 258 256 255 256 259 255 255 255 251 254 253 254 254 253 254 255 255 255 255 257 262 265 267 268 270 270 269 265 258 259 259
255 253 254 253 257 254 251 252 252 251 253 252 252 252 254 255 255 255 255 256 256 257 260 261 265 268 266 266 256 257 257 258

GFSFLT1_sfc_thetae_024.txt.gz
Theta_e
283 282 282 282 282 282 282 281 280 280 280 279 279 279 278 278 278 277 278 278 278 278 277 277 277 277 276 276 277 276 276 277
283 283 282 281 280 279 279 280 279 279 278 278 278 277 277 277 277 277 277 277 277 277 277 277 276 276 275 275 276 275 275 276
284 283 282 281 280 280 279 279 279 278 278 278 277 277 277 276 277 277 277 277 277 277 277 276 276 276 275 275 275 274 275 275
282 282 281 280 280 279 279 279 279 278 277 277 277 277 276 277 277 277 276 276 276 275 274 274 274 274 274 275 275 275 275 276
280 280 280 280 279 278 278 278 279 278 277 277 277 276 276 276 276 275 275 274 273 273 273 273 273 273 274 275 274 274 274 275
281 280 280 278 278 277 277 278 278 277 277 277 277 276 275 274 274 273 273 273 272 272 271 272 272 273 274 274 273 273 273 273
280 280 279 278 278 278 277 277 277 277 276 276 275 275 273 273 272 272 271 271 270 270 269 269 271 274 275 275 273 272 271 271
280 279 279 278 279 277 278 277 276 275 273 272 272 272 271 270 270 270 269 269 268 268 268 267 268 273 274 274 272 271 270 270
280 278 278 278 278 277 278 276 275 273 270 270 270 269 269 268 267 267 267 266 266 266 266 266 267 272 273 273 271 269 269 269
278 277 276 277 277 276 275 275 274 272 271 270 268 266 266 263 264 265 264 264 263 265 264 263 264 269 271 271 269 269 268 269
278 278 277 277 276 274 273 272 271 271 271 269 267 263 262 264 263 263 261 264 264 264 263 263 262 267 270 271 269 267 268 268
277 277 277 275 273 273 271 270 270 269 267 266 265 262 262 261 261 259 258 262 259 260 261 261 262 262 269 271 270 269 268 269
277 276 275 273 272 271 270 269 267 266 265 264 261 262 261 255 256 255 255 255 256 257 259 261 263 266 269 272 273 274 270 269
276 275 273 270 270 269 268 266 264 262 262 260 261 261 261 256 258 256 253 254 257 259 259 260 263 264 270 272 273 274 272 272
270 270 270 267 268 266 266 264 259 257 260 261 260 260 260 261 260 255 254 256 258 258 258 260 263 267 267 268 270 273 272 273
272 271 270 266 264 263 263 261 258 258 261 260 260 259 259 259 258 259 260 260 258 259 262 265 264 266 272 273 271 271 273 271
268 268 265 264 262 260 259 259 258 259 260 260 260 260 259 258 258 263 267 269 270 272 271 268 271 272 273 273 274 274 271 264
267 264 262 261 261 258 256 256 255 256 260 259 259 258 257 256 256 255 259 265 267 268 269 269 270 271 272 272 272 268 265 254
263 260 259 257 256 256 255 253 253 257 259 257 257 256 254 254 254 254 254 253 255 261 264 267 268 269 270 269 264 256 257 250
257 255 255 253 256 254 253 254 255 256 256 256 255 254 254 254 254 254 254 254 254 255 259 260 264 266 266 265 250 254 256 257

GFSFLT1_sfc_thetae_027.txt.gz
Theta_e
283 283 282 282 282 282 282 282 281 281 281 281 280 280 280 280 279 279 279 280 279 279 279 279 279 279 278 278 278 278 278 279
284 284 283 282 281 281 281 281 281 281 280 280 279 279 279 279 279 279 279 279 279 278 278 278 277 278 277 277 278 277 277 278
285 284 282 282 281 280 281 281 281 280 280 280 279 279 279 279 279 279 278 278 278 277 277 276 276 276 276 276 276 276 276 277
284 283 283 281 281 280 280 280 280 279 279 279 279 278 278 278 278 278 277 277 276 276 275 275 275 275 275 276 275 275 275 275
282 283 282 282 281 280 280 280 280 279 279 278 278 278 278 278 277 276 276 275 274 274 274 273 273 274 275 275 275 275 275 275
283 282 281 281 281 280 280 280 280 279 278 278 279 278 277 276 275 274 274 273 273 272 272 272 272 274 275 275 275 274 273 273
283 282 281 281 281 280 280 279 279 279 279 278 278 276 275 274 274 273 272 271 271 270 270 269 271 273 276 276 274 273 272 271
283 281 281 280 281 279 279 278 278 277 275 275 275 275 273 272 271 271 270 269 269 269 268 268 268 273 275 275 273 272 271 270
282 281 280 280 279 278 278 277 277 276 275 273 273 272 270 269 269 268 268 268 267 267 267 267 268 272 273 274 272 271 270 270
280 280 278 278 278 277 276 276 275 275 274 273 271 269 268 266 267 267 266 266 265 267 265 265 265 269 272 273 271 270 269 270
279 278 277 277 277 275 275 274 274 274 274 271 269 266 265 266 265 265 264 266 265 265 264 263 263 267 270 272 271 269 270 271
278 278 278 276 274 274 273 273 273 271 270 268 267 265 265 263 264 262 262 263 260 262 262 262 263 264 270 272 271 271 270 271
277 277 277 275 274 273 272 271 270 268 267 265 263 265 263 259 260 259 259 259 259 259 261 263 264 267 269 272 274 275 272 271
277 276 276 273 272 272 271 269 266 265 263 261 261 262 261 258 260 261 259 259 259 261 261 262 265 265 269 272 273 274 273 273
272 272 273 270 271 271 268 267 263 261 262 261 260 261 260 262 262 260 259 260 260 259 260 261 263 265 268 269 270 273 273 274
273 274 274 269 268 266 266 264 262 261 262 262 261 260 262 262 262 262 262 261 257 258 260 261 263 267 272 273 272 273 273 269
271 270 270 267 265 262 262 262 262 261 261 261 261 260 261 261 261 264 267 269 271 272 271 270 272 272 273 274 274 274 271 261
271 269 264 263 263 260 259 259 259 260 261 261 261 260 259 259 259 258 261 265 267 268 270 271 270 272 272 273 273 268 266 257
263 260 261 260 259 258 256 256 255 254 259 258 258 258 258 257 257 257 256 254 256 261 264 266 269 269 270 270 265 257 257 255
258 255 257 256 255 253 254 255 253 255 256 256 256 256 256 257 256 256 255 255 254 255 259 260 264 267 267 265 256 254 255 256

GFSFLT1_sfc_thetae_030.txt.gz
Theta_e
289 288 288 288 288 287 287 286 286 286 286 286 286 286 285 285 285 284 284 284 284 283 283 283 283 282 283 283 283 282 283 282
290 290 288 288 288 287 287 286 286 286 286 285 285 285 285 285 285 284 284 283 283 282 282 281 281 281 281 281 281 280 281 281
291 290 288 287 287 287 287 286 286 286 285 285 285 285 285 284 284 284 283 282 282 281 280 280 279 279 279 279 279 279 279 279
291 290 289 288 287 286 286 286 286 285 285 284 284 284 284 284 283 283 282 281 280 279 279 278 278 278 278 278 278 278 278 278
291 291 291 290 288 286 286 286 285 285 284 284 284 284 284 283 282 281 280 279 278 278 277 277 277 276 277 278 278 278 278 278
291 291 291 290 289 288 286 285 285 284 284 284 284 284 283 282 281 279 278 278 277 277 276 275 275 276 277 278 278 277 277 277
291 290 290 290 289 288 286 286 285 284 283 284 283 282 281 280 278 277 277 276 275 275 274 273 274 274 276 277 276 276 275 274
290 289 289 290 288 287 287 286 284 283 283 282 282 281 280 278 277 276 275 275 274 273 273 272 273 273 275 276 275 275 275 273
289 289 288 288 286 287 286 284 283 283 282 281 281 280 278 276 275 275 274 273 273 272 272 272 272 272 274 275 275 274 274 273
290 288 286 285 285 283 282 282 282 281 281 280 280 278 276 274 274 273 273 272 272 271 271 270 270 271 273 273 274 273 273 273
284 283 284 284 283 281 281 281 280 281 281 280 279 276 274 274 272 273 272 271 271 270 270 268 267 269 271 273 274 272 273 274
283 283 283 282 280 281 280 279 281 280 278 277 276 274 273 272 271 270 269 269 268 267 268 267 267 268 271 273 273 273 273 274
282 281 282 281 280 280 279 281 278 277 275 274 272 272 270 269 268 267 267 266 266 267 268 269 268 269 271 273 274 275 274 273
281 280 280 279 279 279 281 277 274 273 272 270 269 270 268 267 267 267 267 267 268 268 268 269 269 270 271 272 273 275 274 274
279 278 279 278 277 279 276 274 271 271 270 268 267 267 266 268 268 268 268 268 268 268 268 268 269 270 271 272 273 274 275 275
278 279 279 280 278 277 274 272 271 271 269 269 269 267 268 268 269 268 269 269 268 267 268 268 269 270 273 274 273 274 275 271
277 277 279 277 276 273 271 270 271 270 269 270 269 268 268 268 267 269 270 271 272 273 273 272 273 274 273 274 275 275 272 268
277 277 277 274 272 269 267 268 268 271 270 269 267 268 267 266 266 266 267 268 269 270 271 271 272 272 272 273 273 270 267 264
274 272 271 269 268 266 265 265 265 267 265 268 268 267 267 266 265 265 264 263 264 265 266 267 269 271 271 271 270 264 263 261
266 264 265 264 263 262 262 263 263 265 265 265 265 264 264 264 263 263 262 262 261 262 263 263 264 266 268 267 263 261 260 260

GFSFLT1_sfc_thetae_033.txt.gz
Theta_e
291 290 290 290 290 289 289 288 288 289 288 288 288 288 287 287 287 286 285 285 285 285 285 284 284 284 284 284 284 283 284 283
292 291 290 290 290 289 288 288 288 288 287 287 287 287 287 287 286 286 286 285 284 284 284 283 282 282 282 282 281 281 281 282
293 291 290 289 289 289 288 288 288 287 287 287 286 286 286 286 286 286 285 285 283 283 282 281 281 281 280 280 280 280 279 280
293 291 290 289 289 288 288 288 288 287 287 286 286 286 286 286 285 285 284 283 282 281 280 280 280 279 279 279 279 279 279 279
293 292 291 290 289 289 289 289 288 287 286 286 285 286 286 285 284 284 283 282 281 280 279 279 278 278 278 278 279 279 279 279
293 293 293 292 290 289 289 288 288 286 285 285 286 286 286 284 283 282 281 281 280 279 278 278 277 277 277 278 278 278 278 278
293 293 293 293 292 290 289 288 287 286 285 285 285 284 283 282 282 280 279 278 278 277 276 276 276 277 276 277 277 277 276 276
293 293 293 294 292 291 291 289 286 284 284 283 284 282 282 281 280 279 278 278 277 276 275 275 275 276 276 277 276 276 276 275
294 294 293 294 292 292 290 288 285 284 283 283 282 281 281 280 278 278 278 276 275 275 275 274 274 276 276 276 275 275 275 275
294 294 292 290 289 287 285 285 284 283 283 282 281 280 280 278 277 277 277 276 275 275 274 273 273 275 275 275 274 274 274 275
290 288 287 287 285 283 282 282 282 283 283 282 282 280 279 278 276 277 276 275 275 274 273 272 271 273 274 274 274 273 274 275
285 284 285 285 282 282 282 281 283 282 281 280 280 279 278 277 277 275 274 273 272 271 272 271 270 270 274 275 273 273 273 274
283 283 284 282 282 281 281 282 281 280 278 277 276 277 276 274 273 272 271 270 269 269 270 271 270 271 272 274 276 276 273 273
283 282 282 281 281 280 281 279 277 276 275 274 273 274 273 271 271 270 270 270 270 270 270 271 272 271 273 274 275 275 274 274
280 279 279 279 279 281 279 277 275 274 273 272 271 272 270 271 272 271 271 270 270 271 271 271 271 271 272 272 272 274 275 275
279 279 280 280 279 279 277 275 275 274 273 273 272 270 270 270 271 271 272 273 271 271 271 270 269 272 273 273 273 273 274 274
278 278 279 279 278 277 275 274 274 274 273 273 273 271 271 271 270 274 274 274 274 274 271 271 274 275 275 276 276 276 274 268
278 278 277 276 275 272 271 271 271 275 274 274 271 272 271 270 270 269 272 274 274 275 275 275 275 275 275 275 275 274 268 264
276 273 272 271 269 268 269 269 267 271 268 272 270 271 270 270 269 269 267 267 268 270 270 271 271 272 272 274 273 268 265 262
268 266 266 266 263 264 264 266 267 269 268 268 269 268 267 267 266 266 265 264 264 265 266 267 269 269 270 271 266 263 261 260

GFSFLT1_sfc_thetae_036.txt.gz
Theta_e
289 288 287 287 286 286 286 285 286 285 285 285 284 284 284 283 282 282 281 281 281 281 280 280 279 279 279 278 278 278 278 278
289 288 287 286 286 285 285 285 284 285 284 283 283 283 283 282 282 281 281 281 280 280 279 279 278 278 277 277 277 277 277 277
289 287 286 286 286 285 284 284 284 284 283 282 282 282 282 281 281 281 280 280 279 279 279 278 278 277 277 277 277 276 276 277
289 287 286 286 285 285 284 284 284 283 282 282 281 281 281 281 281 281 280 279 278 278 277 277 277 277 277 277 277 277 277 277
289 288 287 286 285 285 284 284 283 283 282 281 280 281 281 280 280 280 279 278 277 277 277 277 276 276 276 276 276 276 277 277
290 288 287 286 286 285 285 284 284 283 281 281 281 281 281 280 279 279 278 278 277 276 276 276 275 276 275 276 276 276 276 276
290 289 288 287 286 286 285 284 284 282 281 281 281 281 280 280 279 278 277 277 276 275 275 274 276 278 278 277 276 276 276 275
290 290 289 288 287 286 285 284 283 281 280 280 281 280 279 279 278 277 276 276 275 274 274 274 274 278 279 278 277 275 275 275
291 291 290 288 288 286 284 282 282 281 280 279 280 279 277 277 276 275 275 274 274 273 273 273 274 278 279 278 275 274 274 274
292 291 290 288 287 286 283 282 281 280 280 279 279 277 277 276 275 275 274 273 272 272 271 271 271 278 278 277 273 273 273 275
289 287 287 285 285 284 282 281 280 280 281 280 278 277 277 276 274 274 272 274 273 273 271 270 267 276 277 277 273 267 272 273
285 285 284 283 282 281 280 281 280 279 278 277 278 278 277 275 272 272 270 272 269 270 268 267 268 269 276 277 274 271 270 271
282 281 281 281 281 279 279 279 277 277 276 275 275 277 275 274 269 270 270 267 265 264 264 268 269 271 274 276 277 276 272 270
280 279 279 278 278 278 278 277 275 274 273 272 272 273 272 271 269 267 266 267 266 267 266 267 270 269 275 276 276 277 275 273
278 276 275 275 277 274 275 275 273 272 272 270 270 268 268 269 269 268 267 266 267 267 267 264 267 268 268 269 270 273 274 274
277 276 276 274 274 272 273 274 272 271 270 268 267 268 266 267 266 268 266 268 263 263 264 264 264 266 271 269 266 267 270 271
274 274 274 274 271 271 272 272 271 269 269 269 269 267 267 266 264 274 274 275 277 277 269 263 272 274 276 277 277 278 278 268
276 273 272 271 270 266 267 269 269 269 269 269 269 267 267 266 265 263 268 276 277 277 277 277 277 277 277 277 277 278 276 259
272 269 269 268 262 262 263 265 265 264 267 267 265 265 264 264 264 263 262 261 263 270 273 273 274 274 275 275 275 271 269 254
267 263 264 262 259 259 261 263 263 264 263 264 265 263 264 265 263 262 261 261 260 260 265 267 270 271 273 274 269 266 262 259

GFSFLT1_sfc_thetae_039.txt.gz
Theta_e
287 286 287 287 286 285 286 286 286 286 286 285 284 284 284 283 281 281 281 281 280 279 279 279 279 279 279 277 277 277 277 277
287 287 287 286 285 285 285 285 284 285 284 283 283 283 283 282 281 280 280 280 280 279 279 278 278 278 277 277 277 277 276 276
287 286 286 285 285 284 285 285 285 284 283 282 282 282 281 281 280 280 280 280 279 279 278 278 277 277 277 276 276 276 276 276
286 285 285 285 285 284 284 284 283 283 282 281 281 280 280 280 280 279 279 278 278 278 277 277 277 277 276 277 276 276 276 276
287 286 286 286 285 284 284 284 283 282 282 281 280 280 280 280 280 279 279 278 277 277 277 277 276 276 276 276 276 276 276 277
288 287 286 285 285 284 284 284 283 282 281 281 280 280 280 280 279 279 279 277 277 276 276 276 276 276 275 276 276 276 275 276
290 288 286 285 285 285 284 284 283 282 281 280 280 280 280 280 280 279 278 277 276 275 275 274 276 280 281 277 276 276 276 275
290 289 288 286 286 285 285 284 282 281 280 280 280 280 280 280 279 278 277 276 275 274 274 274 274 281 281 281 276 276 275 275
291 290 288 288 287 287 285 283 282 281 281 280 281 280 279 279 277 276 275 275 274 274 274 274 274 280 282 281 276 275 274 274
293 291 289 287 286 285 283 283 282 281 281 281 281 280 278 277 276 275 275 273 273 273 272 272 272 280 281 280 274 274 273 274
290 289 290 288 286 284 283 282 282 282 282 281 280 279 278 278 275 272 273 275 274 274 272 271 270 278 280 279 274 267 272 272
289 290 289 286 285 284 282 282 283 281 279 278 279 278 278 276 273 271 273 272 270 271 270 270 270 270 279 280 275 272 269 270
285 284 284 284 286 283 282 282 278 278 277 277 276 277 275 274 270 270 271 271 269 268 267 269 270 272 276 278 279 278 269 269
283 281 280 280 283 282 281 277 276 276 275 274 272 273 273 273 270 270 270 271 270 269 269 267 269 269 276 277 278 279 276 274
279 278 278 276 277 275 276 275 274 273 271 269 271 268 267 271 271 271 269 269 268 267 268 265 267 268 269 270 271 276 276 276
278 277 276 274 273 271 274 274 273 270 270 269 269 270 268 268 268 269 266 270 266 267 265 263 265 268 271 270 266 265 269 269
273 274 272 271 270 269 272 273 272 270 269 269 269 267 267 266 264 275 274 276 277 276 269 264 272 275 276 277 278 278 277 272
273 272 272 271 270 265 268 271 270 270 268 268 268 267 266 264 265 264 267 277 278 278 278 278 276 277 277 278 279 279 279 275
271 269 270 268 264 263 263 266 265 265 268 267 267 266 264 264 263 262 262 262 263 270 273 274 275 275 276 276 276 272 271 264
267 265 265 263 259 259 261 265 263 264 263 263 262 261 262 262 262 261 261 261 262 264 267 267 269 271 271 272 264 260 262 259

GFSFLT1_sfc_thetae_042.txt.gz
Theta_e
288 289 290 290 289 287 288 287 287 286 286 285 285 284 283 282 280 280 280 280 279 279 279 279 279 279 278 277 277 277 276 277
287 287 288 288 286 287 286 285 285 286 285 284 283 283 282 281 281 280 280 279 279 279 279 279 278 278 277 277 277 277 276 276
287 286 285 286 286 286 285 285 285 285 284 283 283 282 281 281 280 280 280 279 279 279 278 278 278 277 276 276 276 276 276 276
285 285 285 285 285 285 285 285 284 283 283 282 281 281 281 280 280 280 279 279 279 279 278 277 277 277 277 277 277 276 276 276
286 285 285 285 285 285 284 284 283 282 282 281 281 281 281 280 279 280 279 279 278 278 278 277 277 277 277 277 276 276 276 277
287 286 285 285 285 285 284 284 283 282 281 281 281 281 280 280 280 280 279 279 278 277 277 277 276 277 276 276 276 275 275 276
289 287 286 285 285 285 284 283 283 282 281 281 281 280 280 280 280 279 279 277 277 277 276 275 277 280 282 278 276 276 275 275
289 288 288 286 286 285 284 284 282 282 281 281 281 281 280 280 280 279 278 278 277 276 275 274 275 282 283 283 276 275 275 275
291 290 289 288 287 286 284 283 282 282 282 282 281 281 280 279 279 278 278 277 276 275 275 274 275 281 283 283 276 275 275 274
293 291 289 287 286 284 282 282 282 281 281 282 281 281 279 279 279 278 278 276 275 275 273 274 273 281 283 282 275 275 274 274
288 286 287 286 285 283 282 282 281 282 282 282 282 282 280 280 279 278 278 277 276 275 274 273 271 279 282 282 275 270 273 273
288 287 286 285 284 283 282 282 283 283 282 282 282 282 281 281 279 276 276 274 273 273 271 271 271 271 281 283 275 274 271 271
286 285 285 284 285 283 283 284 284 283 281 280 281 281 280 278 275 274 275 274 271 269 266 269 270 273 278 281 282 279 271 270
285 283 284 285 286 284 283 280 279 280 280 280 278 278 277 276 273 272 272 273 271 270 271 270 270 270 278 279 281 281 278 275
283 282 279 280 281 282 280 279 280 280 277 275 276 273 273 274 273 273 271 271 271 270 271 266 267 268 269 270 272 276 278 278
280 280 278 277 276 275 276 277 278 276 273 273 273 272 270 269 270 271 267 272 269 269 268 264 265 267 272 270 267 268 270 271
274 275 272 274 274 274 275 276 274 272 271 270 270 268 267 267 264 275 274 277 278 276 269 264 272 275 276 277 278 278 278 273
273 273 272 272 270 266 267 271 271 271 269 268 267 267 266 264 267 265 268 278 278 278 279 278 274 277 278 279 279 280 280 276
272 270 269 268 265 263 263 265 264 264 267 267 266 266 265 265 264 263 262 262 263 271 274 275 275 275 275 276 276 266 265 260
267 265 266 264 261 260 261 263 262 264 263 262 262 263 264 262 261 261 261 260 258 263 267 266 270 270 270 270 255 253 252 253

GFSFLT1_sfc_thetae_045.txt.gz
Theta_e
288 290 292 294 294 294 293 291 290 288 287 286 286 285 284 282 281 280 280 280 279 279 279 279 279 279 279 278 277 277 277 277
287 289 290 291 290 289 290 288 287 286 285 284 283 284 283 282 281 280 280 279 279 279 279 279 279 278 278 277 277 277 277 276
286 287 287 288 288 290 289 287 287 286 285 284 283 282 281 281 280 280 280 279 279 279 279 279 279 278 277 277 277 276 276 276
284 285 286 287 288 288 287 286 285 284 284 283 282 281 281 280 280 280 279 279 279 279 279 279 278 278 277 277 277 277 277 276
285 285 286 287 287 287 287 286 284 284 283 282 281 282 281 280 280 280 279 279 279 279 278 278 278 278 278 277 277 276 277 277
286 286 286 286 286 287 287 285 284 283 282 282 282 282 281 280 280 280 279 279 279 278 278 278 278 278 278 277 276 276 275 276
288 287 286 286 286 286 286 284 284 283 283 282 281 281 281 280 280 280 279 279 279 278 278 277 278 282 283 278 276 276 275 274
289 288 288 287 287 286 286 284 283 282 282 281 281 281 281 280 280 279 279 279 278 278 277 277 277 283 284 283 276 276 275 275
291 290 289 288 287 286 285 283 283 282 281 281 281 281 280 280 279 279 279 278 278 277 277 277 277 283 284 285 276 275 275 275
294 292 289 287 286 285 282 282 282 281 281 281 282 281 280 280 279 279 278 278 277 278 277 277 277 282 284 283 277 276 275 275
289 287 287 285 285 283 281 282 281 282 282 282 282 282 280 280 279 279 279 279 278 278 278 277 277 281 284 283 277 274 275 275
285 285 284 284 283 281 281 281 283 282 282 281 282 282 281 281 280 279 279 278 277 277 277 276 275 275 283 284 277 277 274 274
283 281 282 282 282 281 281 281 282 282 281 282 282 282 282 282 280 279 279 278 277 275 274 273 273 275 280 283 284 280 274 273
282 281 281 280 282 281 282 283 283 283 283 283 283 283 283 282 281 278 278 277 276 274 274 274 272 272 279 280 282 283 280 275
283 282 281 282 283 284 283 283 284 283 281 281 281 279 279 280 277 277 275 275 275 273 274 271 269 270 270 272 272 277 278 278
281 279 277 278 278 278 279 281 281 279 276 277 277 276 274 273 274 275 271 276 273 272 270 267 266 268 272 270 265 264 270 270
276 276 274 275 274 274 275 278 277 274 274 274 273 272 272 271 268 276 276 279 279 277 271 265 273 275 276 278 278 278 278 270
272 272 272 271 268 267 269 272 274 274 272 271 270 270 269 268 270 268 270 278 279 279 279 277 274 277 278 278 279 279 278 273
270 268 267 266 263 263 264 267 267 268 268 268 266 266 265 265 266 266 266 266 263 274 276 277 276 275 275 275 269 262 263 260
267 266 266 265 262 262 264 267 265 266 264 263 263 262 263 263 262 262 262 260 259 261 265 265 271 271 270 267 256 251 250 249

GFSFLT1_sfc_thetae_048.txt.gz
Theta_e
287 288 291 293 295 296 297 295 292 292 290 289 289 289 288 286 285 283 283 281 279 279 279 278 279 279 279 278 278 278 277 278
287 288 290 291 293 295 294 291 290 290 288 286 287 287 286 285 284 283 282 280 280 279 279 279 279 279 278 278 278 278 277 277
286 287 288 289 290 291 292 291 291 288 286 285 285 285 285 284 283 282 281 280 280 279 279 279 279 279 278 278 278 277 276 277
285 285 287 288 289 290 291 290 289 286 285 283 283 284 284 283 283 282 280 280 279 279 279 279 279 279 279 279 278 278 278 277
285 285 286 287 288 289 290 290 287 286 285 283 283 283 284 283 282 281 280 279 279 279 280 279 279 279 279 279 278 278 278 277
287 286 285 286 287 288 289 288 286 285 284 284 283 283 283 282 281 281 280 280 280 279 279 279 279 279 279 278 278 277 277 276
289 286 286 286 287 288 288 287 286 285 284 284 282 282 282 281 281 280 279 279 279 278 278 278 279 283 283 279 278 277 276 276
290 289 289 287 288 287 287 286 284 285 284 283 282 281 281 281 280 280 279 279 278 278 278 278 278 284 285 283 278 277 276 276
293 291 290 289 287 287 286 284 284 284 283 282 282 282 281 280 280 280 279 279 278 278 278 278 278 284 285 284 278 277 276 276
293 292 289 287 286 284 283 283 282 282 282 282 282 281 280 280 280 279 279 279 279 279 278 278 278 284 285 284 280 278 276 276
289 288 287 285 283 283 281 281 281 282 281 281 282 282 281 281 280 280 280 279 279 279 279 279 279 283 285 285 280 278 277 276
284 284 283 282 282 280 279 280 280 280 280 280 281 282 282 281 280 280 279 279 278 278 278 278 278 279 285 285 280 279 278 277
281 280 280 280 280 278 278 279 279 279 279 280 281 281 281 281 280 280 279 278 278 277 277 277 277 279 282 285 285 283 278 276
279 279 279 278 279 278 277 278 279 279 279 281 281 282 282 281 280 279 280 279 278 277 277 276 274 275 281 282 284 285 282 278
281 279 279 281 283 283 283 283 284 283 283 282 282 282 282 283 282 281 279 278 278 276 277 277 272 272 273 275 277 280 281 279
281 279 277 277 278 280 281 284 283 282 279 281 281 281 279 278 279 279 276 280 278 278 277 273 271 272 274 273 269 269 271 266
276 275 273 272 271 271 274 278 278 275 276 276 276 275 275 274 272 278 278 281 280 279 275 269 275 277 279 279 278 277 276 265
272 270 269 267 265 265 267 272 273 274 273 272 272 272 271 271 271 271 275 281 280 279 278 276 275 278 278 278 279 278 275 268
269 267 265 264 263 264 266 268 269 269 269 269 268 269 268 269 269 270 271 269 266 278 278 280 279 278 278 277 272 265 264 262
265 263 263 262 260 261 264 266 267 267 266 266 265 266 266 266 265 265 264 264 263 264 267 268 276 274 271 268 261 260 258 256

GFSFLT1_sfc_thetae_051.txt.gz
Theta_e
291 290 290 293 295 296 298 299 297 297 295 295 294 293 293 291 289 286 285 284 283 283 283 282 283 282 283 282 282 283 282 282
291 289 290 292 293 295 297 297 294 294 293 293 293 291 290 289 289 286 285 283 283 282 282 282 281 281 282 282 281 281 281 281
290 289 289 290 292 294 295 295 294 293 291 291 290 290 288 289 287 285 284 283 283 281 282 281 281 281 281 280 281 280 280 280
289 288 288 289 291 292 294 294 293 291 289 288 288 288 288 288 286 284 284 282 282 281 281 281 281 281 281 281 281 281 280 280
289 288 287 288 289 291 292 293 291 289 289 287 287 287 287 286 285 284 283 282 281 281 281 281 281 281 281 280 280 280 280 279
291 290 287 287 288 290 291 291 290 289 288 288 287 286 286 285 284 284 282 282 281 281 280 281 280 280 280 280 280 279 279 278
292 290 289 288 288 289 290 290 289 289 288 288 285 284 285 284 283 282 281 281 280 280 280 280 280 284 284 281 279 279 278 277
294 292 291 290 289 288 289 289 286 287 287 286 284 283 283 283 282 281 280 280 280 280 279 279 280 285 285 283 279 279 278 278
296 294 292 290 288 288 287 287 285 286 285 284 283 283 282 281 281 281 280 280 279 279 279 279 280 286 286 284 279 279 278 279
293 292 292 290 287 285 284 284 284 284 284 283 283 281 281 280 281 281 280 280 280 280 279 279 279 285 286 284 279 279 279 279
287 287 288 286 284 283 282 281 281 282 282 282 282 281 280 281 280 281 281 280 279 279 279 279 279 285 286 285 282 281 279 278
283 283 283 283 282 281 280 280 280 280 280 280 281 280 280 280 280 280 279 279 279 279 279 279 280 282 286 287 283 283 281 280
281 280 280 281 280 279 279 279 278 278 278 278 279 280 281 280 280 280 280 279 278 278 278 278 279 281 284 286 287 285 281 280
279 279 278 277 278 278 277 277 277 276 276 278 279 280 281 280 280 279 280 279 279 279 279 278 277 278 283 285 286 288 284 281
280 280 280 280 280 280 281 281 282 281 280 280 280 280 281 281 281 281 281 281 280 279 280 279 276 276 277 280 282 283 284 284
280 278 276 277 277 279 282 285 284 282 281 282 282 281 281 280 282 282 282 284 282 280 280 279 276 277 279 278 277 277 278 270
274 273 270 270 269 269 273 281 281 278 279 279 279 279 278 277 275 281 281 283 284 282 280 275 278 280 281 281 279 278 278 269
270 268 267 266 266 266 267 272 272 273 274 275 275 274 274 274 274 273 277 282 280 280 280 278 278 280 280 281 280 280 279 270
267 266 265 265 263 264 267 270 268 268 268 268 268 269 269 270 270 272 275 275 275 279 279 279 280 279 280 280 274 268 267 265
265 264 264 264 262 262 264 266 265 267 265 265 266 266 267 267 267 267 268 267 266 269 271 270 279 275 272 270 265 264 263 262

GFSFLT1_sfc_thetae_054.txt.gz
Theta_e
304 302 300 300 301 302 303 303 304 304 305 306 305 305 304 302 301 301 299 296 292 289 288 287 288 292 292 291 290 289 289 288
302 300 299 299 300 301 302 303 303 303 304 304 304 304 303 301 299 297 294 293 291 287 286 285 286 288 289 289 288 288 286 287
300 299 298 298 299 300 301 302 303 302 302 302 302 302 301 298 296 294 292 291 290 285 284 284 285 284 288 287 286 286 285 285
301 301 300 299 299 299 300 301 302 301 300 300 300 300 299 298 295 293 293 290 288 285 284 283 283 283 285 286 286 286 286 285
303 303 302 299 299 299 299 300 301 300 299 298 298 298 298 297 294 291 291 288 285 285 283 283 282 282 283 284 285 285 284 284
302 304 303 299 298 297 298 299 300 298 297 297 297 297 297 295 291 289 288 286 285 283 282 282 282 281 282 282 283 283 282 282
303 301 300 301 299 298 297 297 298 296 296 297 295 293 291 290 288 286 286 284 283 282 281 281 281 284 285 283 281 281 281 280
303 303 302 301 299 297 297 297 295 294 292 291 290 288 288 288 287 285 284 283 281 281 281 281 281 285 286 284 281 281 281 280
303 304 304 301 299 297 296 294 292 290 290 289 288 287 287 286 285 285 284 282 281 281 281 281 281 286 286 283 281 282 281 281
301 299 299 298 296 292 290 290 289 289 289 288 287 286 286 285 285 284 283 282 282 281 281 280 281 286 286 283 281 281 280 282
293 293 293 293 291 289 288 287 287 287 288 287 286 285 284 285 284 285 284 282 280 280 281 280 282 286 286 284 281 280 281 282
289 288 287 287 287 286 285 285 286 285 285 285 285 284 285 285 285 283 282 280 279 279 280 280 283 285 286 286 282 282 282 284
287 285 285 285 286 284 283 283 283 283 283 282 283 284 284 283 283 282 281 280 279 278 279 280 281 284 286 287 285 286 285 284
284 282 283 283 284 283 281 282 281 281 280 281 283 283 283 282 282 282 281 280 280 279 279 279 280 282 285 287 288 287 285 285
283 281 281 283 282 282 282 282 281 281 281 281 282 282 282 283 283 283 282 281 281 281 281 281 281 281 283 284 286 286 286 286
281 279 278 279 279 280 284 285 284 283 282 282 282 283 282 283 283 283 285 285 284 284 284 283 280 280 281 282 282 284 284 279
276 274 273 274 274 275 279 285 284 282 282 282 283 282 282 281 280 284 285 285 285 285 285 283 283 284 284 284 284 283 283 276
272 272 272 271 271 271 275 283 284 282 280 279 279 279 279 279 280 278 281 282 281 281 282 281 280 281 282 283 282 281 281 277
270 269 270 269 268 269 274 276 275 277 277 280 280 280 279 279 279 280 280 278 278 280 279 280 280 281 282 282 278 275 274 274
268 267 268 268 266 268 271 273 274 275 275 275 275 276 276 276 277 277 277 277 275 276 276 279 277 276 276 275 274 272 270 269

GFSFLT1_sfc_thetae_057.txt.gz
Theta_e
307 306 306 305 305 306 306 306 307 308 308 308 309 311 311 311 310 310 309 308 306 303 299 295 295 296 296 294 296 294 295 292
305 304 304 303 304 304 305 305 305 306 307 307 308 309 309 308 308 307 307 304 299 297 295 292 291 292 293 291 291 290 290 289
305 305 304 303 304 304 304 304 305 306 305 305 306 307 306 306 306 306 303 300 298 296 293 292 289 289 290 288 288 288 286 287
307 306 306 305 304 303 303 304 305 305 304 304 304 304 305 305 305 303 300 295 293 291 289 289 287 285 287 287 286 286 285 286
306 307 308 307 305 304 303 304 304 304 303 302 302 303 303 304 302 300 297 292 291 288 288 288 286 284 285 284 285 285 285 284
306 307 308 308 306 303 303 303 303 302 301 301 301 302 302 300 299 297 294 292 290 287 286 285 284 283 283 283 283 283 282 282
306 306 306 307 306 304 302 302 302 301 300 300 298 297 296 296 293 290 289 288 286 285 284 283 282 286 287 284 282 282 281 280
305 306 306 307 306 304 303 301 298 297 294 293 293 292 292 291 289 288 287 286 284 284 283 283 282 286 287 286 282 281 281 280
307 307 308 306 303 302 298 296 294 292 290 290 290 289 289 288 287 287 287 284 284 283 282 282 282 286 287 285 282 281 281 281
302 300 300 300 298 294 292 292 292 290 290 290 289 287 287 286 286 286 285 284 283 283 282 282 281 286 287 283 282 281 280 282
295 295 296 294 293 290 289 289 289 289 289 289 288 286 285 286 285 285 285 283 282 281 282 281 282 286 286 283 282 280 280 281
292 291 289 289 288 287 287 286 286 286 286 285 286 285 285 285 285 284 282 281 281 280 280 281 284 285 287 286 282 282 280 280
290 288 287 286 287 285 283 284 284 284 283 283 283 284 284 283 283 282 281 280 279 279 279 280 283 284 287 287 284 284 281 281
286 284 284 284 285 283 282 283 282 281 280 282 283 283 283 283 281 282 281 280 279 279 279 279 280 283 287 288 286 285 283 285
284 282 281 282 282 282 282 282 281 281 281 282 282 282 283 283 283 283 282 281 281 280 280 280 280 281 283 285 286 286 286 286
283 281 279 281 280 282 283 283 282 282 282 282 283 283 283 283 284 283 284 285 283 284 284 282 280 281 283 284 284 285 286 284
279 278 277 278 278 279 281 283 283 282 283 283 282 282 281 281 281 286 286 286 286 287 286 284 285 285 285 284 285 285 286 280
276 275 275 275 275 275 278 285 285 283 282 282 281 281 281 280 280 278 281 283 283 283 283 282 282 283 284 285 285 285 284 278
273 273 273 272 271 272 278 282 283 282 283 283 282 282 281 281 281 280 279 278 278 280 280 281 281 282 282 283 281 277 278 277
270 270 270 269 267 269 274 276 278 279 278 279 279 280 279 280 280 281 279 278 276 276 277 278 280 279 279 278 276 274 272 271

GFSFLT1_sfc_thetae_060.txt.gz
Theta_e
300 300 299 299 300 301 301 301 301 302 302 303 304 305 305 305 304 305 306 306 304 301 302 301 301 302 301 299 298 297 297 296
299 298 298 298 299 299 300 300 300 301 301 301 302 303 304 304 303 303 302 301 300 300 300 297 296 296 298 295 295 295 293 290
299 299 297 297 298 298 299 299 300 301 301 301 301 301 302 302 302 301 300 297 296 293 291 290 290 292 294 292 294 292 290 288
300 299 299 298 298 298 299 299 300 300 299 299 299 299 300 300 300 300 298 295 292 291 290 287 289 288 292 291 291 291 290 288
298 299 300 300 299 298 298 299 299 299 299 297 297 299 299 299 299 298 296 291 289 288 289 287 287 286 288 287 288 288 287 286
300 300 299 300 300 299 298 298 298 298 298 299 296 297 297 296 294 293 291 290 288 286 285 285 285 285 285 286 285 285 284 283
300 300 300 300 301 301 299 297 297 297 297 298 294 292 291 291 291 289 288 287 285 284 285 284 284 288 289 286 284 284 283 281
301 300 300 300 300 299 298 296 293 292 288 287 288 288 289 289 288 286 285 284 283 283 284 283 283 287 288 287 283 283 283 281
301 300 298 297 296 296 291 290 290 286 285 284 287 285 284 285 285 284 284 282 281 281 283 282 282 287 288 286 282 282 282 282
294 294 293 293 291 288 287 287 288 287 286 285 283 282 283 281 281 281 281 279 278 283 282 282 282 287 288 284 282 281 281 282
290 290 291 288 288 286 286 284 285 285 286 285 282 280 280 281 280 279 278 282 282 282 282 282 282 286 287 284 282 280 280 281
288 288 286 286 284 285 284 281 282 281 281 280 280 279 280 279 278 277 277 281 280 280 280 281 282 285 287 285 282 281 280 280
286 285 284 282 282 281 280 281 278 278 278 277 276 279 279 277 276 275 275 278 279 279 279 280 281 284 287 286 284 285 281 280
281 281 281 279 280 279 279 279 278 277 277 277 277 278 277 277 275 276 274 276 278 278 277 278 280 281 286 287 286 286 282 282
279 281 280 278 280 277 277 279 276 276 276 280 281 277 275 277 278 277 277 276 277 278 278 278 279 279 282 284 285 285 284 284
278 278 278 280 280 281 279 280 279 276 279 281 281 281 278 279 278 281 281 280 277 277 278 276 275 277 282 284 284 285 285 284
275 276 274 274 278 279 283 282 282 280 278 280 280 280 280 281 283 286 286 287 287 287 285 283 283 284 285 285 286 286 286 281
272 272 275 276 276 276 279 284 282 281 280 280 280 279 278 279 279 278 281 284 284 284 284 284 284 285 285 285 285 286 284 276
273 273 273 272 271 270 274 283 283 282 281 281 280 280 280 280 279 278 276 275 275 281 281 282 282 283 283 284 282 274 276 276
270 269 268 267 267 268 274 276 277 277 278 278 278 279 279 278 279 278 277 275 274 274 275 277 281 280 279 279 270 266 262 262

GFSFLT1_sfc_thetae_063.txt.gz
Theta_e
298 298 298 298 298 299 299 299 300 300 301 302 304 305 306 304 304 303 305 303 302 304 305 305 305 304 303 301 300 299 299 299
297 297 297 297 298 298 298 299 299 299 300 300 301 302 303 304 304 302 301 303 301 300 302 302 301 301 301 301 300 297 298 297
297 297 296 296 296 297 297 298 298 299 299 299 299 300 300 301 301 300 301 299 301 299 298 299 300 299 300 298 298 296 295 295
297 297 297 296 296 297 297 298 298 298 298 298 298 298 299 300 299 299 298 297 294 294 294 292 293 294 297 298 295 295 295 294
297 297 296 297 297 297 297 297 297 297 297 297 297 298 299 298 298 297 296 295 292 291 291 289 288 290 291 292 293 292 293 292
298 298 298 298 298 298 297 297 297 296 296 297 296 296 296 294 293 293 292 293 290 288 287 287 286 288 288 288 289 289 289 287
299 299 299 299 298 298 298 297 296 295 295 296 293 291 291 290 290 290 289 288 287 286 285 284 287 290 290 288 286 286 285 284
296 297 297 296 296 295 295 293 291 290 288 287 288 288 289 289 288 288 287 285 285 284 284 283 284 289 290 289 284 284 284 283
294 293 293 293 292 291 288 287 287 286 286 286 285 284 283 283 285 286 284 283 282 281 281 281 282 288 289 288 283 283 283 283
293 291 291 290 288 286 286 286 286 286 286 286 284 281 281 280 280 281 279 278 278 279 280 283 282 288 288 287 282 282 281 282
291 289 289 288 286 284 285 283 284 284 285 285 281 278 278 280 278 278 277 279 281 282 283 282 282 287 288 285 282 280 280 281
289 288 287 285 283 283 283 283 281 280 280 279 279 277 278 276 276 275 278 281 281 280 280 281 282 284 288 285 282 281 280 280
287 286 285 282 281 282 281 281 277 276 276 275 274 278 276 276 272 273 277 280 279 279 279 280 281 284 288 285 284 284 280 280
284 284 283 277 278 279 279 277 276 275 277 276 275 276 275 276 275 274 275 279 278 278 278 278 280 282 287 286 286 286 282 282
279 280 280 276 277 276 276 275 275 279 279 280 279 276 273 276 275 275 274 277 278 277 277 277 277 278 282 284 285 284 283 284
278 278 277 275 274 274 276 275 275 279 280 280 280 276 275 278 280 280 279 279 276 274 275 274 274 275 283 284 283 283 283 283
274 273 271 270 271 277 276 276 277 278 280 280 280 279 279 282 283 287 287 286 286 285 281 280 281 283 285 286 286 286 286 283
271 270 268 270 269 272 274 279 282 281 280 279 279 279 279 279 279 278 281 285 285 285 285 285 286 285 285 286 286 286 286 279
268 272 272 267 265 269 272 276 282 281 280 280 279 279 279 278 277 276 274 275 276 282 282 284 284 284 285 285 281 275 276 276
270 269 268 268 267 268 271 277 280 279 279 279 279 279 279 279 278 275 273 274 272 274 275 274 279 278 278 276 270 268 266 265

GFSFLT1_sfc_thetae_066.txt.gz
Theta_e
297 297 297 297 298 298 298 298 299 299 299 300 301 303 304 303 303 304 303 303 301 302 303 305 307 308 308 307 305 303 302 301
297 296 297 296 297 297 298 298 298 298 298 298 299 300 301 302 303 302 301 301 302 301 304 304 305 305 305 305 304 300 300 300
297 296 296 296 296 297 297 297 298 299 298 298 298 298 299 300 301 299 300 298 301 298 301 302 302 302 302 301 301 298 297 297
295 295 296 296 296 296 297 297 297 297 297 297 297 297 298 299 298 297 298 297 296 295 297 298 299 299 299 301 300 298 298 298
297 297 296 295 296 296 296 296 296 296 296 295 296 298 298 297 296 296 296 295 294 292 295 294 295 295 296 296 295 295 295 295
295 296 297 297 296 296 296 296 295 294 294 295 296 295 295 294 293 292 292 293 293 291 289 289 288 290 289 290 291 292 292 290
295 295 295 295 295 295 294 293 292 292 291 292 290 290 290 289 289 289 289 289 288 288 288 287 289 291 292 290 288 288 288 288
294 294 294 293 293 292 291 289 287 287 287 286 285 285 287 288 288 288 288 287 286 286 285 285 285 290 292 291 286 286 286 286
293 293 292 291 291 290 287 286 286 285 285 285 287 286 284 284 284 286 285 283 283 281 281 281 282 289 290 290 285 284 284 284
291 291 291 290 289 285 286 285 285 286 285 284 283 285 282 282 281 280 279 278 277 279 280 283 283 287 289 288 283 283 283 283
290 289 288 289 287 284 284 283 284 285 284 283 282 282 280 280 278 277 276 278 281 283 283 283 283 286 288 286 282 281 281 281
288 288 288 287 284 282 283 283 284 280 279 279 279 278 277 276 276 274 276 281 281 281 281 281 282 284 288 285 282 281 280 281
286 286 287 284 280 281 280 283 279 277 276 275 273 275 276 272 271 271 277 280 279 279 279 280 281 284 288 285 283 283 280 280
282 282 283 278 277 278 280 278 276 272 278 279 272 274 274 272 271 272 272 278 278 278 279 279 280 282 287 286 286 285 281 282
280 281 281 280 277 277 277 276 271 276 279 276 273 277 275 275 276 276 276 278 278 278 278 278 279 280 283 284 284 284 282 283
277 278 278 277 275 276 277 272 272 271 274 275 279 279 278 275 278 278 278 280 279 279 278 278 277 279 284 284 283 282 282 282
273 272 274 271 272 271 280 273 270 277 278 279 279 278 279 278 281 285 284 285 284 283 280 278 280 284 285 286 285 285 285 283
274 271 269 269 270 267 272 276 279 279 279 278 278 278 278 278 279 279 283 286 286 286 286 285 284 285 286 286 287 287 285 280
269 268 268 267 268 265 265 269 274 281 280 279 278 278 278 277 277 277 277 276 275 282 283 284 284 285 286 285 280 275 275 275
265 267 264 266 268 262 264 270 275 281 280 280 280 279 279 278 275 275 275 273 272 273 274 274 279 279 278 278 272 270 268 268

GFSFLT1_sfc_thetae_069.txt.gz
Theta_e
295 296 296 296 296 297 297 297 298 298 298 299 300 301 302 302 301 302 302 301 300 301 302 302 304 305 307 310 309 307 305 304
295 295 295 295 296 296 296 297 297 297 297 297 297 298 299 299 301 301 300 300 301 301 301 301 301 302 305 306 306 304 303 303
295 295 296 296 295 295 295 296 296 297 297 297 297 297 297 297 299 299 299 298 300 299 299 300 302 304 303 303 303 303 300 301
295 295 295 295 295 295 295 295 295 295 295 296 296 296 296 297 297 297 297 296 296 295 296 299 302 302 302 303 302 301 300 300
294 294 294 295 295 295 295 295 294 294 294 294 294 295 295 295 295 295 295 294 293 293 295 294 298 299 299 299 298 298 298 298
293 293 293 293 293 293 293 293 291 291 291 291 292 292 292 291 290 290 289 291 292 291 289 290 291 295 294 293 294 294 294 291
293 293 293 293 293 292 291 290 289 289 288 288 286 286 286 287 287 287 288 288 288 288 287 287 289 292 294 293 290 289 289 289
291 292 292 291 291 291 291 288 286 285 286 285 285 285 286 285 285 286 287 286 286 286 286 285 286 291 293 292 288 287 287 287
291 291 291 290 290 289 287 286 286 286 284 282 284 283 283 284 284 284 285 283 282 282 282 281 282 289 291 291 286 285 285 285
290 289 289 289 289 286 286 285 285 285 285 284 282 282 282 281 281 281 279 278 277 279 276 277 284 287 289 289 285 284 283 284
288 288 288 289 287 284 285 283 284 284 284 282 281 281 283 282 280 278 275 278 278 280 283 283 284 286 288 287 283 282 281 282
286 286 287 286 284 283 282 282 283 281 280 278 278 277 278 277 275 273 273 276 275 278 280 281 282 283 288 286 283 282 281 281
284 284 285 283 280 280 280 282 279 278 277 276 278 275 277 269 271 269 270 272 277 279 279 279 281 284 287 286 284 283 281 280
281 281 282 278 277 278 280 278 278 276 276 279 280 274 272 269 270 270 268 270 275 278 278 277 279 283 287 286 286 284 281 282
277 278 278 279 276 276 276 276 273 273 275 279 279 274 270 272 272 275 275 278 278 278 279 279 279 281 283 284 284 283 282 283
276 277 277 277 277 274 274 279 278 274 274 276 275 272 272 275 275 275 276 280 279 279 279 278 278 281 285 284 282 281 282 282
275 274 276 274 274 274 269 272 277 277 278 279 279 274 275 279 279 284 284 284 284 283 281 279 282 286 286 285 285 285 285 282
274 275 274 272 272 272 265 266 272 276 279 279 278 275 274 276 277 280 283 286 286 286 285 284 285 286 286 286 286 286 284 280
271 271 268 268 269 267 261 261 265 270 275 279 277 273 273 277 277 277 277 275 275 281 283 286 286 286 286 284 281 276 276 275
269 267 265 265 268 261 258 261 264 269 273 278 277 278 277 277 276 275 274 273 272 273 275 274 280 280 279 279 274 272 269 265

GFSFLT1_sfc_thetae_072.txt.gz
Theta_e
293 294 294 294 294 295 296 296 296 296 296 297 298 298 299 300 300 300 301 300 300 300 301 301 302 305 310 311 311 309 307 305
294 294 294 294 294 294 294 294 295 295 295 295 296 296 297 297 298 298 298 298 298 299 299 299 300 299 302 305 307 307 306 306
294 294 294 294 294 294 295 295 294 294 294 295 295 295 295 296 297 297 297 297 298 297 297 298 299 299 299 301 303 303 303 303
293 293 293 293 294 293 294 293 293 293 293 293 294 293 293 294 294 295 295 294 294 294 294 295 297 298 300 303 302 302 303 302
292 292 292 292 293 293 293 293 291 291 291 291 291 291 291 291 292 291 292 291 292 292 292 292 294 295 299 300 299 299 300 300
291 291 291 291 291 291 291 291 290 289 289 289 289 289 288 288 288 288 288 289 289 289 288 288 289 292 295 295 296 295 296 294
290 291 291 291 291 291 290 289 287 287 286 287 286 285 285 285 285 285 286 286 287 287 286 286 289 292 294 294 291 290 290 291
289 290 290 289 290 289 288 287 285 285 284 283 284 283 284 284 284 284 284 285 285 285 285 284 285 291 292 292 290 289 289 288
289 289 289 289 288 288 286 286 285 285 283 281 282 282 281 281 281 283 283 283 283 282 282 281 283 289 291 291 288 287 286 286
288 288 288 287 287 285 285 285 285 285 284 284 282 281 281 281 281 280 280 279 279 279 279 276 280 288 289 289 286 285 284 284
286 286 286 286 284 284 284 282 283 284 283 282 280 279 279 280 280 277 275 279 279 279 275 276 282 286 287 288 284 283 282 282
284 285 285 284 283 282 282 281 282 280 279 279 278 277 277 277 276 276 275 276 275 275 274 275 280 282 286 289 283 282 281 281
284 283 283 282 279 279 279 281 277 277 276 277 275 278 278 272 273 271 270 271 273 273 276 275 276 282 287 286 284 284 281 281
280 280 281 277 275 277 279 276 275 274 275 275 276 279 274 270 272 271 267 270 272 273 272 277 279 282 287 286 286 284 281 282
276 277 277 277 275 275 276 275 275 279 278 276 277 279 277 274 273 272 272 272 274 274 274 278 278 281 282 283 282 283 283 284
275 276 277 276 276 275 274 271 272 275 279 280 280 279 277 276 276 275 275 276 272 273 273 274 276 281 284 282 281 281 283 282
272 271 272 271 274 274 267 266 267 273 277 279 280 280 280 277 276 281 285 285 284 285 279 278 282 286 286 286 286 285 285 279
270 271 271 271 271 272 264 262 264 267 271 274 276 279 279 275 274 278 280 285 286 284 284 284 285 287 286 286 286 286 283 277
266 266 267 268 268 270 266 260 261 263 266 269 271 275 278 277 275 272 271 272 274 279 284 286 287 287 286 285 281 275 275 273
262 263 263 265 267 264 260 260 263 263 266 268 272 275 277 277 277 275 274 274 273 274 275 276 282 281 281 280 274 271 267 266

GFSFLT1_sfc_thetae_075.txt.gz
Theta_e
294 294 294 294 295 296 296 296 296 297 297 297 298 299 300 300 301 301 302 303 303 303 304 305 305 306 309 311 313 311 310 309
294 294 295 295 295 295 295 295 295 295 296 296 297 297 298 298 298 299 299 299 300 300 301 301 302 303 303 305 308 308 308 308
294 294 294 294 294 294 294 294 293 294 294 294 294 295 295 295 296 296 297 297 297 297 298 298 299 300 300 301 302 303 303 305
292 292 293 293 293 293 293 292 292 292 292 293 292 292 292 292 293 293 293 293 294 294 295 295 297 298 299 300 301 302 303 303
291 291 291 292 292 292 292 292 291 291 291 291 291 290 290 291 291 291 291 291 292 292 292 292 293 294 295 298 299 300 300 301
290 290 290 291 291 291 291 291 290 289 289 289 289 289 288 288 288 288 288 289 289 289 290 290 290 292 293 293 294 295 295 296
290 290 290 290 290 290 290 289 288 287 287 287 286 286 286 286 286 286 286 287 287 287 287 288 289 292 292 292 291 291 290 291
289 289 289 289 289 289 289 288 286 286 285 284 284 283 284 284 284 284 285 285 285 285 286 286 287 289 291 291 289 289 290 289
289 289 289 288 288 287 286 286 285 284 283 282 283 282 282 281 282 282 283 283 283 283 284 284 284 288 290 290 289 288 289 288
288 288 287 287 286 285 285 284 284 284 283 283 281 280 280 279 280 281 281 281 280 282 281 281 282 286 288 289 286 286 286 286
287 286 286 285 284 284 283 282 283 283 282 281 280 278 278 280 279 279 278 279 280 280 280 278 279 283 286 287 285 284 285 284
285 285 284 284 283 282 281 281 281 279 279 279 278 277 277 278 277 277 276 277 277 278 279 278 279 280 285 287 285 284 283 282
285 284 283 281 279 278 279 280 277 276 276 276 275 276 278 278 275 274 273 274 275 275 278 279 279 280 285 288 286 285 282 281
280 279 281 276 276 276 278 277 276 273 276 279 279 275 279 279 276 276 273 274 276 276 277 278 279 280 285 286 285 284 281 282
275 274 275 275 275 273 275 276 272 272 274 276 278 281 282 281 278 276 276 276 276 276 277 277 277 279 283 284 281 282 283 284
273 272 273 273 272 270 273 272 271 271 273 275 278 279 280 281 281 278 278 278 279 279 278 278 277 279 283 282 281 282 283 284
268 268 269 269 269 268 266 268 267 270 272 273 275 276 277 278 279 282 283 284 285 286 285 281 282 284 286 285 285 286 285 282
266 266 265 265 266 264 264 261 263 265 268 269 270 271 273 275 276 276 279 284 285 285 285 284 283 286 286 286 286 286 283 278
261 261 261 262 263 266 264 259 261 262 264 265 267 268 270 273 275 277 276 276 277 279 284 285 285 287 287 286 281 276 276 274
256 256 257 259 262 263 261 261 262 263 264 265 266 267 269 272 274 276 276 275 274 276 278 276 287 286 285 282 277 273 270 268

GFSFLT1_sfc_thetae_078.txt.gz
Theta_e
301 301 302 302 302 303 302 302 302 303 304 304 304 305 305 305 305 305 306 306 306 307 307 308 309 309 310 311 313 313 313 312
301 301 301 302 302 302 301 301 301 302 302 302 301 302 302 302 302 302 303 302 302 303 303 304 305 306 306 307 307 307 309 311
300 300 300 300 299 299 299 299 299 299 300 299 299 299 299 298 298 299 299 299 299 299 299 300 301 302 302 303 304 304 304 305
299 299 298 297 297 297 297 296 297 297 298 297 296 296 295 296 296 296 296 296 297 297 296 297 298 298 299 300 300 301 302 302
297 297 296 297 297 296 296 296 295 296 296 295 294 293 293 294 293 294 294 294 294 295 295 295 295 295 296 297 297 298 299 300
295 295 295 296 296 296 296 295 295 295 294 293 293 292 292 292 292 292 292 292 292 292 292 293 293 294 294 294 295 294 294 295
294 294 294 294 294 294 294 293 294 293 292 291 290 289 289 289 289 289 289 289 289 289 290 290 291 292 291 291 292 292 291 291
293 294 294 294 293 293 293 293 291 291 289 288 287 287 287 287 287 287 287 287 287 287 288 288 289 290 290 290 290 291 291 290
294 293 293 293 292 291 291 290 289 288 288 287 286 286 285 285 285 286 286 286 285 286 286 287 287 288 289 289 290 291 291 291
294 293 292 291 290 289 288 288 287 287 286 286 285 284 283 283 284 285 285 285 285 285 285 285 285 287 287 288 288 288 288 289
291 290 290 288 288 287 286 286 285 284 284 284 284 282 282 283 283 284 283 283 284 284 284 284 283 285 286 287 287 286 287 288
290 289 287 286 286 285 284 283 283 282 282 282 282 282 282 282 283 282 282 282 282 283 284 284 284 284 285 286 286 286 285 285
289 287 286 284 283 282 282 282 281 280 279 280 281 282 282 281 283 283 281 281 282 283 284 286 285 284 285 286 286 288 284 283
286 284 282 280 280 279 280 279 278 276 276 277 279 281 283 282 283 282 281 280 282 283 283 283 284 284 285 285 287 286 283 284
281 279 278 278 277 276 276 277 274 274 275 277 277 279 281 282 283 283 282 281 281 282 282 282 281 282 284 285 285 283 283 284
276 275 274 274 274 274 274 273 272 273 275 276 277 278 279 280 281 281 282 282 280 280 281 281 281 283 284 284 284 284 285 285
271 270 271 270 270 270 270 270 269 271 273 274 273 275 276 276 277 280 281 282 284 284 284 284 286 285 285 286 285 285 285 284
268 267 267 267 266 267 268 268 267 268 269 270 271 272 273 273 274 274 277 281 283 283 285 285 286 285 285 286 286 286 285 283
264 264 263 263 263 265 267 266 265 266 266 267 269 270 270 271 272 273 274 274 277 282 283 284 286 285 286 287 284 281 281 281
260 260 260 259 261 264 264 263 264 265 266 267 267 268 268 269 270 271 272 273 276 279 281 281 284 286 287 286 282 279 276 275

GFSFLT1_sfc_thetae_081.txt.gz
Theta_e
303 304 304 304 305 305 305 305 305 305 305 305 305 306 306 306 305 305 305 305 305 305 306 306 307 308 308 309 310 310 310 311
303 303 304 304 304 304 304 303 303 303 303 303 302 302 302 301 301 301 302 301 301 301 302 302 303 304 304 305 305 305 306 307
303 303 302 302 301 301 300 300 300 301 300 299 299 299 299 298 298 299 298 299 299 299 299 299 300 300 300 300 301 301 301 303
302 301 300 299 299 298 298 298 299 299 298 297 297 296 296 296 296 296 296 297 297 297 296 296 297 297 298 298 298 299 299 300
300 299 298 298 297 297 297 297 298 297 296 295 295 294 294 294 294 294 294 294 294 294 294 295 295 295 296 295 295 296 297 297
298 297 297 296 297 297 296 296 296 295 294 293 293 292 292 292 292 292 292 292 292 291 291 292 292 293 292 291 291 292 293 293
297 296 296 296 295 296 295 294 295 292 291 290 290 290 290 289 289 289 289 289 289 289 289 288 290 291 291 290 289 289 290 290
295 295 295 295 295 294 293 293 292 290 289 288 288 288 288 287 287 287 287 288 287 287 287 287 288 290 290 289 288 288 289 289
296 295 294 294 293 292 292 291 290 289 289 287 287 286 286 285 285 286 286 286 286 286 286 286 286 289 289 288 287 287 288 288
296 294 293 292 291 290 289 289 288 287 286 286 285 284 284 282 284 285 285 284 284 285 284 284 285 287 288 287 285 286 286 287
293 292 291 290 289 288 286 286 284 283 283 284 284 282 282 283 283 284 284 283 284 283 284 284 284 287 287 287 285 284 285 286
291 290 288 287 286 285 284 282 282 282 281 281 282 281 282 282 283 283 283 283 282 282 283 284 285 285 287 287 285 284 284 285
287 286 286 284 283 282 281 281 280 279 278 278 278 280 281 281 282 282 283 282 281 282 283 285 285 285 286 286 286 286 284 284
286 283 282 280 280 279 278 278 277 274 273 275 277 278 280 280 280 282 283 282 282 282 281 283 284 285 286 285 286 286 285 284
282 280 279 278 277 276 276 275 271 272 274 276 276 278 279 281 281 281 281 281 281 281 281 281 282 283 284 285 284 283 284 284
279 278 276 275 274 273 273 272 271 272 273 275 277 277 276 277 278 278 279 280 279 279 280 280 280 282 285 286 284 284 285 284
274 273 272 271 270 270 268 268 267 270 272 273 272 273 274 274 275 278 279 280 281 282 282 281 284 285 286 286 286 286 286 284
271 270 269 268 267 267 266 267 266 267 268 269 270 270 271 271 271 270 274 277 279 280 281 282 283 285 286 286 286 286 286 283
268 266 265 264 263 265 266 265 264 265 266 267 269 269 269 269 269 270 269 269 271 276 278 280 282 283 285 286 286 284 284 283
262 262 262 260 262 264 262 262 262 264 266 266 267 267 267 267 267 268 269 269 270 272 276 279 282 283 284 286 284 282 281 279

GFSFLT1_sfc_thetae_084.txt.gz
Theta_e
298 299 299 299 300 300 300 299 300 300 299 299 299 299 299 298 297 298 298 298 298 298 298 298 299 300 300 300 301 301 301 302
298 299 299 299 299 298 298 298 297 297 297 296 296 296 296 295 295 295 295 296 295 296 296 296 296 296 296 296 297 297 297 298
297 298 297 296 295 295 295 295 295 295 294 294 294 294 293 292 293 293 293 294 294 294 294 294 294 295 294 294 294 294 294 295
297 296 294 294 293 293 293 294 294 294 293 292 292 291 291 291 292 292 291 292 292 292 292 292 293 292 293 293 293 292 293 294
295 294 293 292 292 292 292 293 293 293 292 290 289 290 290 290 290 290 290 290 289 290 290 290 290 290 291 290 289 289 290 291
295 293 291 291 292 292 292 292 292 290 289 289 289 289 288 287 287 287 286 287 287 287 286 287 288 289 289 287 287 286 287 287
294 293 292 292 292 292 291 291 290 288 287 287 286 285 284 284 284 284 284 284 284 284 284 284 287 290 290 289 286 285 284 285
294 293 292 292 292 290 289 289 286 284 284 284 284 283 283 283 283 283 283 283 283 283 283 283 283 288 289 289 286 284 284 284
293 292 291 290 289 289 288 286 284 284 283 282 283 281 282 282 282 282 282 282 282 282 281 281 282 287 288 288 285 284 283 284
293 291 289 288 288 285 284 284 283 282 282 282 281 279 279 277 279 280 280 279 278 280 278 277 281 286 287 287 284 283 284 284
291 289 288 287 286 284 283 282 281 281 281 280 280 276 276 279 278 278 277 281 281 280 279 278 279 284 287 287 283 283 283 284
289 287 286 285 283 282 281 280 280 280 279 277 277 275 276 276 275 274 276 278 278 279 279 277 278 280 287 288 285 283 283 283
285 284 283 283 282 281 279 280 277 275 274 271 269 272 275 269 271 272 273 275 277 274 279 280 277 281 286 287 287 286 283 283
283 281 280 278 280 280 276 276 273 268 267 267 268 270 270 268 271 270 269 272 276 277 277 278 280 279 284 285 286 286 284 284
281 278 276 277 275 274 273 271 266 265 266 268 268 269 267 271 273 268 268 273 274 275 275 276 277 278 279 281 283 284 285 284
281 278 275 273 271 270 270 268 268 267 268 267 268 265 269 271 271 273 272 273 274 275 275 275 275 277 281 282 282 283 285 284
275 274 271 269 268 266 264 266 264 265 267 266 266 265 268 269 269 274 276 278 278 279 278 277 280 281 282 283 284 285 286 284
272 270 268 266 265 262 260 261 260 259 262 262 265 264 264 266 266 266 269 274 275 276 277 278 279 280 281 282 284 285 286 283
267 264 262 261 260 259 258 256 256 255 261 259 260 260 260 261 264 264 264 264 266 271 273 276 278 279 280 282 284 281 283 283
262 260 260 258 257 255 255 256 254 257 257 257 258 258 260 262 263 264 264 265 265 267 270 271 275 277 278 281 279 280 281 276

GFSFLT1_sfc_thetae_087.txt.gz
Theta_e
296 296 296 297 297 298 298 298 298 298 299 298 297 296 296 295 294 294 295 295 294 294 294 294 295 295 295 294 295 295 295 296
295 296 296 296 296 296 296 296 296 296 295 294 293 293 293 293 292 293 293 293 292 293 292 292 292 292 292 292 293 292 292 292
295 295 294 294 293 293 294 294 294 294 293 292 292 291 291 290 291 291 290 291 291 290 290 290 290 290 290 290 291 290 290 290
294 292 292 292 292 292 293 292 292 292 291 290 290 290 289 289 289 289 289 289 288 288 288 288 289 288 289 290 288 288 288 289
293 293 292 292 291 291 291 292 291 290 289 288 288 288 287 287 287 287 287 287 286 286 286 287 287 287 287 288 287 287 287 287
293 292 291 291 291 291 291 291 290 288 287 287 286 286 286 285 284 284 284 285 285 285 284 284 285 286 286 286 285 284 285 284
293 292 291 291 291 291 290 288 287 286 286 285 284 283 283 283 283 283 283 283 283 282 282 282 284 287 288 288 284 284 283 283
293 292 292 291 291 289 288 286 284 283 283 283 283 282 282 282 282 282 281 281 281 281 281 281 281 286 288 288 284 283 283 282
293 292 291 290 289 288 286 284 283 283 282 282 282 281 281 281 280 280 280 280 280 280 280 280 281 286 287 287 283 282 282 283
294 292 290 289 288 285 284 283 283 282 281 281 281 279 278 276 277 279 278 278 277 279 277 275 278 284 286 286 282 282 282 282
291 289 288 287 286 284 283 282 281 281 280 280 279 275 275 277 275 277 276 278 278 279 276 275 275 282 285 286 282 279 281 282
289 288 287 286 284 283 281 280 280 279 278 277 276 274 275 274 274 273 271 273 269 274 275 273 275 276 285 286 283 281 281 283
288 286 285 284 284 281 280 279 277 275 274 272 271 274 274 267 269 267 266 266 270 271 274 274 274 279 283 284 284 285 281 283
285 282 282 280 282 279 277 276 274 273 272 272 270 270 268 265 266 269 265 265 269 271 272 274 275 274 281 282 283 283 282 283
282 280 277 276 277 276 275 274 273 272 272 271 270 268 265 270 270 265 264 265 268 269 271 273 274 274 274 277 280 281 282 283
280 278 275 274 273 273 272 273 271 270 271 269 268 266 267 268 267 269 270 269 265 265 268 272 272 274 279 279 279 280 281 281
278 276 273 271 269 269 269 270 270 269 268 267 266 265 266 265 265 271 274 275 276 277 276 274 277 278 279 280 281 282 283 281
276 273 271 269 267 265 265 265 264 264 264 264 265 263 262 261 260 262 265 271 273 274 275 276 276 278 278 279 280 281 282 280
271 269 267 264 262 261 261 261 261 260 263 260 259 258 257 258 258 257 259 261 263 268 271 274 275 275 277 278 279 274 278 279
265 263 263 262 259 258 259 260 258 259 258 257 257 257 258 257 258 258 259 261 262 263 267 267 272 273 276 277 271 271 275 277

GFSFLT1_sfc_thetae_090.txt.gz
Theta_e
295 296 297 298 298 298 299 298 298 298 299 299 299 298 296 295 293 293 293 293 292 292 292 291 291 291 292 291 292 290 290 291
294 295 295 295 295 295 295 295 295 295 295 294 293 292 292 292 291 291 291 291 290 290 290 289 289 289 289 289 289 287 287 288
293 293 293 293 293 293 292 292 292 293 292 291 291 290 290 289 289 289 289 289 288 288 287 287 287 287 287 288 286 286 285 286
292 292 291 291 291 291 291 291 291 291 290 290 289 288 287 287 288 288 287 286 286 286 285 285 286 285 286 286 286 285 285 285
291 291 290 290 290 290 290 290 290 290 289 287 286 286 286 286 286 286 285 285 284 284 284 284 284 284 285 285 285 284 285 286
292 291 289 289 290 290 290 290 289 288 287 286 285 285 285 284 283 283 283 283 283 282 282 282 283 284 284 284 283 283 283 283
293 291 291 291 291 291 290 288 287 286 285 285 284 283 282 282 282 282 281 281 281 281 281 281 283 286 288 286 283 283 282 282
294 292 292 291 291 290 288 286 285 284 283 283 282 282 282 281 281 281 280 280 280 280 280 280 280 285 287 287 283 282 281 281
295 293 292 292 291 289 286 284 284 283 282 281 281 280 280 280 280 280 280 280 280 280 279 279 280 284 286 287 283 282 281 281
297 294 292 291 289 286 284 283 283 282 281 281 280 279 278 277 277 279 278 277 276 279 275 274 277 283 285 285 281 282 281 282
295 293 291 289 287 285 283 282 282 281 281 280 279 276 276 278 276 277 275 277 278 277 275 274 273 281 284 284 279 277 280 280
292 290 290 288 285 284 282 282 281 279 278 277 276 276 276 275 275 272 271 273 268 272 273 272 272 274 282 283 280 279 279 279
289 289 287 286 285 283 282 279 278 276 275 274 272 276 274 272 271 269 266 265 266 266 270 272 272 278 280 282 282 282 277 278
289 285 285 285 285 282 278 277 274 273 271 270 272 273 273 271 272 269 264 265 268 270 269 271 273 272 279 279 281 281 279 279
284 283 281 281 282 281 276 274 273 271 271 272 272 272 271 272 272 268 265 266 268 265 265 267 268 270 272 275 276 278 279 280
284 282 278 277 275 275 274 274 273 273 273 272 271 271 269 270 269 270 269 269 262 262 264 265 268 269 278 278 278 278 279 280
279 276 274 273 272 271 273 274 273 273 272 271 270 269 268 267 266 271 273 274 275 276 274 268 276 277 278 279 280 280 281 277
277 275 273 271 270 269 271 273 273 272 269 268 268 267 265 264 262 262 265 270 272 273 274 274 275 276 277 278 279 279 277 273
275 273 271 270 267 267 268 269 268 267 266 266 264 263 262 262 262 261 260 257 259 266 270 272 273 275 276 278 274 268 270 270
272 269 269 267 264 264 265 265 263 263 263 263 262 262 262 261 260 259 257 257 257 259 264 265 270 273 274 274 261 266 268 269

GFSFLT1_sfc_thetae_093.txt.gz
Theta_e
298 299 300 300 300 300 301 305 306 307 308 307 303 302 299 299 296 295 293 292 291 290 290 289 289 290 290 288 288 286 286 287
295 296 297 297 297 297 296 298 299 300 297 296 297 295 295 294 292 290 290 289 289 288 288 287 287 287 287 287 285 285 284 285
294 294 294 294 294 294 294 293 293 295 295 294 293 292 291 289 289 289 288 288 287 287 286 286 285 285 285 284 284 283 283 284
292 292 292 292 292 291 291 290 292 293 292 290 290 289 288 288 287 287 286 286 285 285 284 284 284 284 284 284 284 283 283 283
291 290 291 291 290 289 289 290 289 290 289 288 287 287 287 286 286 286 285 284 283 283 283 283 282 283 283 284 283 283 283 284
291 291 290 289 289 289 289 288 289 288 287 286 285 285 285 284 284 283 283 282 282 281 281 281 282 284 283 283 282 282 282 282
292 292 290 290 290 289 289 288 287 286 285 285 284 283 283 283 282 282 281 281 281 280 280 280 281 286 287 285 282 282 281 281
293 292 292 292 291 289 288 287 285 284 284 283 283 282 282 282 281 281 280 280 280 280 280 279 279 285 286 287 283 282 281 281
295 294 293 292 290 289 287 285 284 284 283 282 282 282 281 280 280 279 279 279 279 279 279 278 279 284 286 286 282 281 281 281
297 296 293 291 291 287 285 284 284 283 283 282 282 280 278 278 277 279 278 277 276 278 274 273 275 283 284 284 280 281 280 281
296 294 292 291 288 286 285 284 283 283 282 280 280 278 277 278 277 277 276 277 277 276 273 273 271 280 283 283 279 273 278 278
295 293 292 290 288 286 284 283 283 281 279 278 277 276 276 276 275 274 273 273 271 273 273 273 273 274 281 282 279 277 274 275
293 291 290 287 287 285 283 282 280 279 277 275 275 277 275 273 272 271 271 272 273 273 273 274 273 276 279 280 281 281 270 273
291 287 286 286 288 285 283 279 277 276 274 272 274 274 273 272 272 271 272 273 273 273 271 272 274 273 277 278 280 280 277 278
284 284 283 285 286 286 279 279 277 274 273 273 272 271 273 274 273 273 272 272 272 272 271 270 270 270 272 274 273 276 277 278
283 283 281 280 280 279 277 277 275 274 273 273 273 273 272 272 272 273 273 273 271 270 269 266 265 269 278 278 275 276 278 279
277 278 276 276 275 275 276 277 275 273 273 273 272 272 271 271 269 273 274 275 276 276 273 270 275 277 278 279 279 280 280 269
276 275 274 274 273 273 275 276 275 274 273 272 271 271 269 268 269 268 268 271 272 272 273 274 274 275 277 278 279 276 273 261
274 273 273 272 271 272 275 276 275 274 272 271 270 269 267 267 266 265 265 265 265 267 270 271 272 274 276 275 270 261 263 257
274 272 272 271 267 269 272 273 271 270 269 269 267 266 266 265 264 264 263 262 262 261 265 265 270 272 272 271 258 257 257 257

GFSFLT1_sfc_thetae_096.txt.gz
Theta_e
297 299 299 300 300 300 300 302 308 316 320 316 313 308 306 304 300 298 296 294 293 289 289 288 289 289 287 286 285 285 285 285
296 298 298 298 298 299 300 304 305 306 306 305 303 302 301 298 296 295 293 291 289 288 287 286 286 286 285 284 284 283 283 283
294 294 295 295 296 298 298 301 301 301 301 299 298 297 295 294 293 292 290 288 287 286 285 284 284 284 284 283 283 282 282 282
292 292 293 294 294 297 296 295 296 297 296 295 294 294 293 291 289 288 286 285 285 284 283 283 283 283 283 283 283 283 283 282
291 292 291 292 292 292 293 294 294 295 294 293 292 291 290 288 286 285 284 284 283 283 282 282 282 283 283 283 283 282 282 283
292 290 290 290 290 290 290 292 292 292 291 290 288 288 287 285 284 283 283 282 282 281 281 281 282 284 283 283 282 282 281 282
291 291 292 292 290 290 288 288 291 290 288 287 286 284 284 283 283 282 282 281 281 281 280 280 282 287 287 284 282 282 281 281
292 292 293 291 291 289 288 286 285 286 285 284 284 283 283 282 282 281 280 280 280 280 280 279 280 286 287 286 282 282 281 281
294 294 293 291 290 289 287 285 284 284 283 282 283 282 281 280 280 280 279 279 279 279 279 278 281 285 286 285 282 281 281 281
296 295 293 291 290 288 285 284 284 283 283 282 282 281 280 279 279 279 279 277 277 278 275 276 277 284 285 283 280 281 280 281
295 294 292 291 290 287 285 284 284 284 283 282 282 281 280 279 279 278 277 277 277 277 274 274 274 282 283 282 280 276 278 279
295 294 293 291 288 287 286 285 286 283 281 280 279 279 279 278 277 276 276 274 272 274 274 274 275 277 281 282 280 278 276 275
293 293 291 289 288 287 286 286 282 281 280 279 278 278 278 276 274 274 273 273 273 273 273 274 275 278 279 280 280 281 274 275
290 287 286 287 289 287 286 281 281 280 279 277 276 276 276 274 273 273 274 274 273 274 273 274 275 274 277 278 280 280 277 277
283 283 282 284 286 287 281 281 281 279 276 276 275 273 273 275 275 274 274 274 274 274 274 273 272 272 273 275 275 277 278 279
281 280 279 280 279 279 280 281 279 277 275 275 274 274 273 274 274 274 274 275 274 274 273 271 271 272 277 277 275 274 275 272
277 278 276 277 277 277 279 281 278 275 275 274 273 273 273 272 271 276 276 277 278 277 274 273 275 277 278 278 280 280 278 266
276 275 275 275 275 276 279 279 278 276 274 274 273 273 272 272 271 269 271 273 275 275 274 275 275 276 277 278 278 275 272 263
274 273 274 273 271 272 275 277 276 275 275 274 274 273 272 271 272 272 270 268 267 270 271 273 273 275 276 275 270 263 263 258
271 270 270 271 269 271 276 276 275 274 274 273 272 272 271 270 268 268 267 267 266 264 267 267 271 273 271 270 260 258 257 256

GFSFLT1_sfc_thetae_102.txt.gz
Theta_e
300 301 302 304 305 309 316 320 324 327 328 328 328 328 329 329 326 321 314 308 303 301 299 297 297 296 297 296 295 294 293 293
300 301 302 304 305 306 309 313 320 324 326 326 325 325 325 323 320 317 306 305 300 298 296 294 294 295 294 293 293 292 291 291
301 302 303 304 305 306 306 308 312 320 322 321 321 318 315 314 311 306 304 301 297 295 294 292 293 293 292 290 290 290 290 290
300 301 302 304 305 305 306 306 307 309 317 314 312 311 311 308 304 302 299 298 293 292 291 292 292 291 291 290 290 290 290 289
300 300 302 304 305 305 306 308 307 308 310 311 310 310 306 304 301 298 295 294 291 292 290 291 291 290 289 289 289 289 289 289
299 300 301 303 304 305 306 305 306 306 305 306 304 303 301 297 297 294 292 292 289 289 289 290 289 288 288 288 288 288 287 287
300 299 299 301 302 302 303 302 303 304 304 303 297 293 293 291 290 288 288 287 287 287 286 288 286 289 289 288 287 287 286 286
300 300 300 300 301 300 302 301 300 300 294 292 292 291 290 288 286 287 286 286 286 285 286 286 287 289 288 287 286 286 286 285
301 301 301 301 300 300 298 296 296 295 292 290 290 288 286 286 287 284 284 284 283 285 286 286 287 289 288 286 286 286 285 285
303 302 302 300 299 297 293 293 292 292 291 290 289 286 285 284 283 283 283 282 283 284 284 285 286 289 288 286 285 283 283 283
301 300 299 299 298 294 292 292 291 290 289 289 288 287 285 284 283 283 283 283 282 282 284 285 285 288 287 285 284 283 282 282
298 298 298 297 293 292 292 291 291 289 287 287 287 286 286 284 282 283 282 282 282 281 281 283 285 286 287 285 283 283 282 281
297 296 295 293 291 290 290 290 287 286 286 285 286 285 284 283 282 282 281 280 280 279 279 280 281 284 285 285 283 283 282 281
290 291 291 289 290 289 289 287 285 285 285 285 285 284 284 282 281 281 281 280 279 278 278 277 278 281 283 283 283 283 281 281
287 288 287 287 287 288 286 286 285 285 284 283 282 282 282 282 281 281 280 280 278 278 278 277 277 277 280 280 281 281 280 280
285 285 284 285 286 286 285 285 285 285 283 282 283 282 281 281 281 281 282 282 280 280 280 278 276 277 279 279 279 279 280 279
282 282 282 282 283 283 284 285 284 282 281 282 281 281 280 279 278 280 280 281 282 283 282 279 281 281 281 281 282 281 281 277
278 278 279 280 280 280 282 284 283 283 282 280 280 279 278 278 278 277 279 281 281 282 281 280 280 281 282 282 281 281 279 275
277 276 276 276 276 276 279 282 281 281 280 280 279 279 278 278 278 277 276 276 276 280 280 280 281 281 281 280 279 274 272 272
275 273 274 274 274 274 276 279 279 279 279 279 279 279 278 278 277 276 276 276 275 272 276 278 279 279 279 280 274 273 272 269

GFSFLT1_sfc_thetae_105.txt.gz
Theta_e
305 306 308 311 315 319 322 323 325 328 330 331 331 332 332 333 332 330 328 321 317 313 310 304 302 301 300 297 298 297 296 296
305 305 305 307 308 309 314 318 321 323 326 328 329 330 330 330 330 329 325 316 313 309 306 303 298 298 298 296 296 294 293 294
303 303 304 305 306 306 308 310 315 320 324 326 328 328 327 326 326 323 318 313 312 306 302 298 296 295 295 294 293 292 291 291
304 303 304 305 306 306 307 307 310 315 321 323 324 324 323 323 319 311 309 306 303 300 299 296 294 293 294 292 292 292 291 290
303 304 304 304 305 306 307 308 309 309 314 319 318 318 318 315 310 306 303 301 298 299 297 294 293 292 291 291 290 290 290 290
303 304 304 304 305 306 307 308 309 308 309 312 314 312 307 303 301 299 298 298 296 295 292 291 291 290 289 289 289 289 288 288
303 303 303 303 304 305 306 307 307 307 307 308 306 301 299 297 294 292 292 291 292 289 289 288 289 291 291 289 288 287 286 286
302 303 304 304 304 304 305 306 304 303 299 297 294 293 292 291 291 289 288 289 287 288 287 286 286 291 290 289 287 286 286 286
302 303 305 305 304 304 305 303 299 298 295 293 293 291 288 288 288 288 287 286 286 285 286 286 286 290 289 287 286 286 286 285
302 303 303 304 303 302 298 297 296 295 294 292 291 288 287 287 286 285 284 284 285 285 286 286 286 290 288 286 285 284 284 284
301 302 301 302 301 296 295 294 294 294 293 291 290 288 287 286 285 284 285 284 283 284 285 286 286 289 288 286 285 283 282 282
300 299 299 298 294 293 293 292 293 291 289 288 288 287 288 286 284 284 284 282 283 283 284 285 286 287 288 287 284 283 282 281
297 296 295 293 292 291 291 291 288 288 287 286 286 286 286 285 284 284 283 283 282 281 281 283 285 286 288 286 285 285 283 282
290 290 289 288 289 288 289 287 286 285 284 285 286 285 285 284 283 282 283 281 280 280 280 279 281 284 287 286 285 285 283 283
286 286 285 286 286 286 286 285 285 285 285 285 285 285 285 284 283 283 282 281 280 280 279 279 279 281 283 283 283 283 282 282
283 283 282 284 284 284 284 285 284 285 284 284 284 284 283 283 283 282 283 283 281 281 281 278 277 279 282 281 281 281 281 281
280 280 280 281 280 280 282 284 284 284 283 283 283 282 282 281 279 281 282 284 285 284 283 281 282 282 282 282 282 282 282 279
278 277 278 278 276 276 278 281 281 283 283 282 281 281 280 280 279 277 280 282 282 284 283 282 282 283 282 283 283 283 283 278
275 274 274 275 273 274 277 279 280 282 281 282 281 281 280 280 280 280 278 277 278 282 281 282 283 283 283 284 284 280 281 276
271 269 271 270 269 271 274 278 279 280 280 281 281 281 280 280 279 279 278 277 277 276 278 280 282 283 284 284 279 275 273 273

GFSFLT1_sfc_thetae_108.txt.gz
Theta_e
299 300 302 309 314 316 320 322 324 326 328 328 329 329 329 328 328 328 327 323 320 320 315 310 309 307 304 300 299 298 296 293
297 298 299 300 303 308 313 317 319 321 324 326 327 328 328 328 328 328 325 322 319 315 310 308 305 304 300 297 296 295 293 292
297 298 297 297 298 299 301 307 312 315 318 320 323 323 325 326 327 324 324 318 315 310 307 304 303 301 298 296 295 293 290 290
297 297 297 298 299 299 300 301 302 306 311 315 317 319 321 322 320 316 312 311 309 308 304 302 301 298 297 295 293 291 290 289
297 297 298 298 299 299 300 301 302 303 305 309 311 314 317 318 314 310 307 306 304 305 303 302 299 297 295 293 291 290 290 288
297 297 298 298 299 300 301 301 302 302 302 304 308 312 311 309 306 303 301 303 302 300 299 298 296 295 293 291 290 289 288 287
297 297 298 298 298 300 301 301 302 301 301 302 303 301 301 298 296 295 294 294 294 292 292 292 293 293 292 290 288 287 287 286
297 298 297 298 299 298 300 300 299 297 294 294 292 292 293 293 292 291 291 290 290 289 288 288 288 292 292 290 287 286 286 285
297 296 297 299 299 299 299 298 294 292 291 290 290 289 287 288 289 288 288 288 287 287 287 287 286 292 291 289 286 286 285 285
296 297 297 297 297 295 292 291 291 290 290 288 288 285 287 286 286 286 286 285 285 285 285 285 287 291 290 287 285 284 284 284
296 296 295 294 294 290 290 289 289 289 289 288 286 286 287 286 285 283 284 284 284 284 285 285 286 290 289 287 285 284 283 282
294 293 292 290 288 288 288 288 288 287 285 283 283 284 286 285 283 284 284 283 283 284 285 286 287 288 289 287 284 283 281 281
290 288 288 285 287 286 285 285 281 281 280 279 280 282 285 285 284 283 283 283 282 283 282 283 285 287 289 288 286 285 281 280
284 283 283 282 283 283 282 281 279 278 276 277 278 285 285 285 283 282 283 282 281 281 281 281 282 286 288 287 286 286 282 282
280 279 279 280 281 279 280 278 278 277 277 277 277 277 281 283 283 283 282 282 281 280 280 280 281 283 285 284 283 284 282 283
278 278 277 278 277 277 279 279 281 276 276 276 277 277 277 280 282 281 282 283 282 282 282 279 279 281 284 283 282 282 281 280
275 275 274 274 273 273 275 277 276 276 275 275 275 275 275 275 274 283 283 285 286 285 283 281 282 284 285 285 284 284 283 277
272 272 272 270 270 270 272 275 275 275 274 274 275 273 272 272 273 273 278 283 284 285 284 284 283 284 285 285 285 284 283 278
268 268 267 266 266 267 269 271 273 272 273 272 272 271 271 271 271 272 272 272 276 282 282 283 283 284 284 284 284 280 282 280
264 263 263 263 264 265 267 268 268 270 269 269 269 270 271 270 270 270 270 271 273 276 279 280 283 284 284 284 281 279 279 276

GFSFLT1_sfc_thetae_111.txt.gz
Theta_e
298 299 301 309 315 319 323 324 325 326 327 326 324 323 323 324 325 326 326 325 323 322 322 322 318 314 312 309 305 304 300 298
295 296 297 298 307 312 317 321 322 324 326 326 326 326 325 324 325 326 323 323 321 321 320 317 314 311 311 308 303 302 296 293
295 296 296 296 296 298 301 309 314 317 321 321 324 324 324 325 325 324 322 323 323 320 317 314 311 309 308 304 302 300 295 292
295 295 295 295 296 297 297 298 300 305 311 313 316 319 322 324 325 323 322 323 320 316 314 310 308 306 306 304 300 298 296 293
294 295 296 296 296 297 298 299 299 299 300 303 307 311 315 316 314 313 313 312 312 313 312 309 306 305 304 302 298 296 296 293
295 295 295 296 297 297 298 299 299 300 300 300 302 307 308 309 308 307 306 307 306 304 303 302 302 302 300 298 296 294 291 290
296 295 296 296 296 297 298 299 299 299 299 299 299 299 299 299 298 298 298 298 298 297 297 298 300 297 296 295 294 290 289 288
297 296 295 294 296 296 297 298 298 297 294 293 293 295 294 293 294 293 293 292 292 292 291 291 292 294 294 292 291 289 289 287
295 295 296 296 297 297 297 296 294 292 291 290 290 289 289 291 291 290 290 290 289 289 289 289 288 293 293 290 287 287 287 286
295 295 294 294 295 293 291 290 290 290 290 289 289 284 288 287 288 289 288 286 286 285 286 286 286 292 292 289 286 285 285 285
293 292 291 290 291 288 288 288 289 289 289 288 286 283 287 287 285 284 284 285 284 284 285 285 286 291 291 288 285 285 284 284
290 288 288 287 287 286 285 285 285 285 284 282 282 285 286 286 283 284 284 283 284 284 284 285 286 287 290 289 285 285 284 283
286 285 284 284 285 284 283 283 280 279 279 278 282 285 285 286 284 284 284 284 283 283 282 283 283 287 290 289 286 286 283 282
282 281 281 280 281 281 280 280 279 278 276 281 279 285 285 285 284 283 284 283 281 281 281 281 282 285 289 288 287 285 282 282
279 277 276 277 277 278 279 281 281 275 276 275 275 275 278 283 283 284 283 282 281 281 281 280 281 283 285 285 285 284 283 284
276 275 274 274 273 272 275 275 276 275 275 275 274 272 273 276 280 281 281 283 282 282 282 280 280 282 285 284 283 283 283 281
272 272 270 269 269 270 271 273 274 275 275 274 273 272 273 271 272 282 283 285 286 286 283 282 283 285 287 287 286 285 284 279
269 268 266 266 267 266 268 270 271 271 271 270 272 271 270 269 269 270 275 284 285 285 284 284 283 285 286 287 286 286 285 276
265 263 262 262 264 264 266 268 269 268 270 269 268 268 268 268 268 267 267 268 276 282 283 283 283 284 285 285 285 281 283 280
261 260 261 262 263 263 264 268 268 270 269 266 266 266 267 266 266 266 266 266 269 275 277 277 282 283 284 284 281 279 279 280

GFSFLT1_sfc_thetae_114.txt.gz
Theta_e
297 298 300 310 317 320 322 322 321 319 319 319 319 320 321 321 320 321 323 323 322 322 322 322 321 320 319 318 319 316 314 312
294 295 295 298 308 311 315 318 320 323 324 322 321 320 320 320 320 321 323 323 322 322 322 321 321 321 319 319 317 311 312 302
294 294 295 295 296 302 309 312 315 317 320 321 324 323 321 320 320 321 322 323 323 322 321 320 321 320 316 316 312 309 308 303
294 294 294 294 295 295 296 297 301 309 312 314 315 320 322 323 322 322 322 322 320 321 320 319 319 316 314 315 311 308 308 305
293 293 294 295 295 296 296 297 297 297 298 301 305 309 312 314 316 318 320 321 320 320 320 318 315 312 311 310 308 305 304 302
293 294 294 295 295 296 296 297 298 298 297 297 298 301 304 305 307 308 309 311 311 310 309 309 307 307 307 307 305 303 300 297
293 294 295 295 295 295 296 297 298 297 297 297 297 297 299 299 297 297 297 298 298 296 296 298 301 299 298 299 299 296 293 291
296 295 294 295 296 295 295 297 297 295 293 292 292 294 293 293 293 293 293 293 293 293 293 293 293 294 295 293 292 291 290 289
295 295 295 295 295 296 294 294 293 291 291 290 291 290 290 292 291 289 289 290 290 291 290 290 290 293 294 291 290 288 288 287
295 295 293 293 293 292 290 289 290 290 289 289 288 284 287 288 289 290 288 287 287 286 287 286 287 291 293 290 286 286 285 285
292 291 290 289 289 288 287 287 287 287 287 287 285 283 288 287 286 284 285 285 284 285 285 285 286 290 292 289 285 285 284 284
288 287 286 286 286 285 284 283 284 284 283 282 283 286 286 286 284 284 284 284 285 284 284 285 285 287 291 289 285 285 283 283
284 282 282 282 284 282 282 281 279 280 281 283 285 285 285 286 285 285 285 284 284 284 283 283 283 286 290 289 287 287 284 283
281 279 278 280 282 281 281 281 277 278 281 281 283 285 285 285 284 284 284 283 282 282 282 281 282 284 289 289 287 287 283 283
278 276 274 275 276 276 278 280 274 275 275 275 275 274 281 283 283 284 283 282 281 282 281 281 282 283 284 285 285 285 284 284
275 273 271 272 272 271 273 274 275 274 274 274 273 271 272 275 277 281 282 283 283 283 283 281 281 283 285 285 284 283 283 282
271 270 268 268 268 268 268 271 271 274 274 273 273 271 272 271 272 282 284 285 286 286 282 276 283 285 287 287 286 285 285 277
267 266 265 265 266 265 266 269 270 271 271 271 272 271 269 268 268 269 275 282 285 285 285 285 285 285 286 287 287 287 286 277
264 262 262 263 263 263 264 267 267 267 268 267 265 266 266 266 266 264 265 266 274 279 282 283 283 283 284 284 285 282 284 280
261 260 261 261 261 261 262 264 264 266 266 263 264 264 265 265 265 264 264 263 272 275 274 274 282 283 283 283 280 279 278 279

GFSFLT1_sfc_thetae_117.txt.gz
Theta_e
298 299 300 305 313 317 320 318 317 318 321 321 322 322 323 322 320 320 321 320 319 320 320 320 321 320 319 319 319 318 317 317
295 295 295 299 308 313 316 318 317 316 317 319 319 320 321 321 320 320 320 320 319 320 320 320 320 320 320 319 320 318 317 317
293 294 294 294 301 308 311 313 315 318 317 316 316 316 316 317 318 318 318 318 320 320 319 320 321 321 320 319 318 317 315 314
292 292 293 294 294 295 298 305 307 311 313 315 316 317 319 318 317 316 317 319 320 320 320 320 320 320 320 320 318 316 315 314
291 292 293 294 295 295 296 296 297 297 300 305 307 309 311 314 317 318 319 319 318 319 321 320 320 319 319 317 315 314 312 311
292 293 293 293 294 295 295 296 297 297 296 296 296 298 299 301 302 303 306 310 311 312 311 309 309 309 310 308 307 305 304 299
292 292 293 294 294 294 294 295 297 297 297 297 296 295 298 298 297 297 297 298 298 297 297 299 301 298 299 299 299 297 295 294
294 293 293 293 294 294 295 295 296 294 292 291 291 293 293 293 293 292 293 293 293 293 293 293 294 294 296 294 294 293 292 290
294 294 294 294 293 294 292 292 292 290 290 290 290 289 290 291 291 291 291 290 290 289 290 291 290 293 294 292 291 290 289 289
294 293 292 291 291 290 288 288 288 288 288 288 287 286 288 288 290 289 287 286 286 285 285 286 286 290 292 291 287 287 286 286
291 290 289 288 288 287 286 285 285 286 286 286 285 286 287 287 286 285 285 284 285 286 285 285 286 289 291 288 285 285 284 284
287 285 284 285 285 284 284 283 284 284 284 284 285 286 286 285 284 285 285 285 285 285 285 285 285 286 291 289 285 285 284 284
283 282 283 284 284 283 282 282 280 282 283 284 285 285 285 286 285 285 285 285 282 283 284 284 284 287 290 289 288 287 285 284
281 279 279 280 283 281 281 281 278 282 281 282 284 285 285 285 285 284 284 284 282 282 283 282 283 284 289 289 288 288 284 283
279 277 275 276 276 277 278 277 276 276 276 275 276 280 282 283 283 284 283 283 282 282 282 281 282 283 284 285 285 284 284 284
276 274 273 273 272 271 274 275 276 275 274 274 273 272 273 274 278 280 281 283 281 282 282 279 280 281 285 285 283 281 282 279
271 271 269 269 268 268 269 271 272 273 273 273 272 271 271 271 271 282 285 286 286 286 280 272 283 286 286 287 286 285 284 280
267 266 266 266 265 264 266 268 270 270 270 269 270 269 268 267 269 269 272 282 283 284 283 284 283 284 285 287 287 286 284 273
264 263 263 263 262 262 264 267 267 265 266 265 265 265 266 267 264 264 265 267 273 278 280 282 283 284 284 284 285 282 284 279
261 260 261 261 260 260 262 264 263 266 264 262 263 264 265 266 266 265 264 265 272 271 273 269 280 283 283 283 280 279 278 278

GFSFLT1_sfc_thetae_123.txt.gz
Theta_e
299 300 301 303 304 306 311 314 318 321 321 322 323 325 326 326 324 325 324 322 319 319 319 319 320 320 319 319 319 318 318 318
293 294 295 295 297 301 307 313 316 318 319 320 321 323 324 324 324 323 323 321 320 319 319 319 319 319 319 319 319 318 317 318
292 292 293 294 294 298 303 309 313 315 316 318 319 320 320 321 322 320 320 320 320 319 318 318 318 319 318 318 318 317 316 317
292 292 292 292 293 294 299 306 309 312 311 312 314 316 318 319 320 319 319 318 318 318 317 317 317 317 318 318 318 317 317 317
293 293 292 293 293 294 295 296 297 303 308 309 309 311 313 314 314 314 315 316 316 316 317 317 317 317 318 317 317 317 315 312
293 293 293 293 294 294 294 295 296 296 296 296 296 298 300 302 303 303 304 306 307 311 310 307 304 302 305 307 306 304 303 299
292 293 293 293 293 293 293 294 296 296 295 295 295 297 299 298 298 297 298 298 297 296 297 297 297 295 296 299 300 298 297 295
295 294 294 292 292 293 294 294 294 292 290 291 292 292 293 293 292 292 293 293 292 293 293 292 293 295 294 294 296 294 295 292
295 294 294 292 293 292 292 292 291 290 289 289 291 290 291 291 291 290 290 290 290 289 290 290 290 293 294 291 293 292 291 291
301 294 292 292 292 290 288 288 288 288 288 288 289 288 289 289 290 289 289 288 287 287 286 286 287 292 292 289 288 287 286 287
294 291 292 290 289 287 286 287 287 287 287 288 288 288 289 288 287 285 286 285 285 285 285 285 286 291 290 287 286 285 285 286
289 289 288 287 286 286 286 286 286 286 286 286 286 287 287 286 286 286 286 286 285 285 285 285 286 289 290 289 286 285 284 284
284 284 284 284 285 284 284 284 283 284 285 285 286 286 286 286 285 286 286 286 285 285 284 285 285 288 290 290 288 287 284 284
283 282 281 283 285 283 282 282 283 285 285 285 285 285 285 286 285 285 285 285 284 284 283 283 284 286 289 288 287 286 285 285
280 279 277 277 278 278 279 281 284 283 283 283 283 283 284 284 285 285 284 284 283 283 282 282 283 283 285 285 285 284 284 285
276 275 273 274 273 274 277 279 279 279 279 280 281 281 281 281 283 282 283 284 282 281 282 281 281 282 286 285 283 282 282 280
272 271 271 271 270 270 273 276 277 276 277 277 277 277 279 282 283 286 285 285 285 284 281 283 285 287 288 287 286 285 283 276
267 267 268 267 267 267 270 275 276 275 275 275 275 275 275 277 279 278 280 283 283 284 284 284 284 286 287 287 287 285 283 279
265 265 265 265 264 265 269 272 272 272 272 272 272 273 273 272 272 272 273 274 274 276 280 284 284 284 284 285 286 283 282 280
263 262 263 263 262 264 268 269 269 271 270 270 270 270 270 270 269 271 272 271 271 270 275 274 280 280 280 280 279 279 279 278

GFSFLT1_sfc_thetae_126.txt.gz
Theta_e
302 302 303 304 307 309 312 313 318 321 323 324 325 327 329 330 329 330 330 328 327 326 324 324 325 324 324 323 322 321 320 320
302 303 303 303 304 304 306 310 313 317 321 323 324 325 326 327 329 329 330 329 327 326 325 324 324 324 322 321 321 319 319 319
302 303 303 303 302 302 304 309 311 315 319 321 323 324 325 325 326 328 327 327 327 326 324 324 323 324 321 319 319 318 317 317
306 304 303 303 302 302 302 305 313 316 318 320 321 322 323 324 325 325 326 325 325 324 323 323 323 322 322 321 319 318 318 318
304 304 305 302 302 302 302 303 304 314 317 317 318 319 321 322 323 323 323 323 322 322 322 322 322 321 320 319 318 318 318 317
303 304 304 304 302 302 302 302 303 302 306 313 310 310 311 312 313 313 313 317 319 318 317 317 316 313 315 315 315 314 308 302
302 303 302 303 302 302 301 301 302 302 302 301 300 301 303 304 303 302 301 302 301 301 302 302 300 296 298 302 303 301 299 297
302 303 304 305 304 301 301 301 301 301 298 295 298 298 299 298 295 295 297 297 295 296 296 295 296 295 295 295 301 299 298 295
300 302 306 306 303 301 300 300 299 298 296 293 294 295 295 295 294 293 293 293 292 293 294 293 292 294 294 292 297 295 294 293
298 300 303 305 302 299 298 297 296 295 294 292 293 292 293 292 293 292 291 290 289 289 289 289 290 292 292 291 291 289 288 289
295 296 298 300 301 297 295 293 292 292 291 291 290 290 291 291 289 288 289 286 287 287 287 286 289 291 290 290 290 287 287 287
291 291 291 292 293 293 291 290 291 289 289 287 289 289 291 289 288 287 287 287 286 286 286 287 288 290 290 289 288 288 287 288
286 287 286 288 288 288 288 288 287 287 287 287 287 287 287 286 286 286 287 286 286 286 286 286 287 288 290 289 288 288 287 286
283 283 282 282 284 284 285 285 285 286 286 286 286 286 286 286 286 287 287 288 287 287 286 285 286 288 288 288 287 287 286 287
280 281 279 278 278 279 281 283 285 285 285 285 285 285 285 286 287 287 287 287 286 286 285 284 284 286 286 286 286 285 286 287
276 277 275 275 275 275 276 280 284 283 282 283 283 284 283 284 285 284 284 286 286 285 285 284 284 285 286 285 284 284 284 284
272 272 272 272 272 272 274 279 281 280 280 281 281 282 284 283 283 286 285 285 285 285 285 285 286 287 287 286 286 284 283 283
267 267 268 268 269 269 272 278 280 279 278 278 280 281 281 281 281 279 282 283 284 285 285 285 286 288 287 287 285 285 284 282
264 264 265 265 266 267 271 275 275 275 276 278 279 279 279 279 279 279 278 277 277 279 282 284 285 285 286 287 286 283 283 282
264 263 264 264 264 266 270 271 272 273 273 274 274 274 275 275 276 276 276 276 276 277 278 276 279 280 279 280 281 282 281 280